Observation data for Romero 11SSW on 11/16/2019      Previous  Date       Current Mesonet Observations  Soil Data  Daily Summary Page  Observations in Plain Language
KBR1 160600Z 24006KT 03/M05 A301 RMK A01 T00251054  RH  056%=      5-min Rain = 0
KBR1 160601Z 24006KT 03/M05 A301 RMK A01 T00251054  RH  056%=      5-min Rain = 0
KBR1 160602Z 24006KT 03/M05 A301 RMK A01 T00251054  RH  056%=      5-min Rain = 0
KBR1 160603Z 24006KT 02/M05 A301 RMK A01 T00241054  RH  056%=      5-min Rain = 0
KBR1 160604Z 24006KT 02/M05 A301 RMK A01 T00241053  RH  057%=      5-min Rain = 0
KBR1 160605Z 24006KT 02/M05 A301 RMK A01 T00241053  RH  057%=      5-min Rain = 0
KBR1 160606Z 24006KT 02/M05 A301 RMK A01 T00241052  RH  057%=      5-min Rain = 0
KBR1 160607Z 24007KT 03/M05 A301 RMK A01 T00251052  RH  057%=      5-min Rain = 0
KBR1 160608Z 24007KT 03/M05 A301 RMK A01 T00261052  RH  057%=      5-min Rain = 0
KBR1 160609Z 24007KT 03/M05 A301 RMK A01 T00261052  RH  056%=      5-min Rain = 0
KBR1 160610Z 24007KT 03/M05 A301 RMK A01 T00261052  RH  056%=      5-min Rain = 0
KBR1 160611Z 24006KT 03/M05 A301 RMK A01 T00261052  RH  056%=      5-min Rain = 0
KBR1 160612Z 24006KT 03/M05 A301 RMK A01 T00261052  RH  056%=      5-min Rain = 0
KBR1 160613Z 24007KT 03/M05 A301 RMK A01 T00261052  RH  056%=      5-min Rain = 0
KBR1 160614Z 24007KT 03/M05 A301 RMK A01 T00251053  RH  057%=      5-min Rain = 0
KBR1 160615Z 24007KT 03/M05 A301 RMK A01 T00251052  RH  057%=      5-min Rain = 0
KBR1 160616Z 24006KT 03/M05 A301 RMK A01 T00251052  RH  057%=      5-min Rain = 0
KBR1 160617Z 24006KT 02/M05 A301 RMK A01 T00241052  RH  057%=      5-min Rain = 0
KBR1 160618Z 24006KT 02/M05 A301 RMK A01 T00241052  RH  057%=      5-min Rain = 0
KBR1 160619Z 24006KT 02/M05 A301 RMK A01 T00241053  RH  057%=      5-min Rain = 0
KBR1 160620Z 24006KT 02/M05 A301 RMK A01 T00231052  RH  057%=      5-min Rain = 0
KBR1 160621Z 24006KT 02/M05 A301 RMK A01 T00231051  RH  058%=      5-min Rain = 0
KBR1 160622Z 23006KT 02/M05 A301 RMK A01 T00241050  RH  058%=      5-min Rain = 0
KBR1 160623Z 23006KT 03/M05 A301 RMK A01 T00251050  RH  058%=      5-min Rain = 0
KBR1 160624Z 23006KT 03/M05 A301 RMK A01 T00251051  RH  057%=      5-min Rain = 0
KBR1 160625Z 23006KT 03/M05 A301 RMK A01 T00251051  RH  057%=      5-min Rain = 0
KBR1 160626Z 23006KT 03/M05 A301 RMK A01 T00251051  RH  057%=      5-min Rain = 0
KBR1 160627Z 23006KT 03/M05 A301 RMK A01 T00261050  RH  057%=      5-min Rain = 0
KBR1 160628Z 23006KT 03/M05 A301 RMK A01 T00271050  RH  057%=      5-min Rain = 0
KBR1 160629Z 23006KT 03/M05 A301 RMK A01 T00271050  RH  057%=      5-min Rain = 0
KBR1 160630Z 23006KT 03/M05 A301 RMK A01 T00271049  RH  057%=      5-min Rain = 0
KBR1 160631Z 23006KT 03/M05 A301 RMK A01 T00271049  RH  057%=      5-min Rain = 0
KBR1 160632Z 23006KT 03/M05 A301 RMK A01 T00281048  RH  057%=      5-min Rain = 0
KBR1 160633Z 24006KT 03/M05 A301 RMK A01 T00291048  RH  057%=      5-min Rain = 0
KBR1 160634Z 23005KT 03/M05 A301 RMK A01 T00291048  RH  057%=      5-min Rain = 0
KBR1 160635Z 24005KT 03/M05 A301 RMK A01 T00291049  RH  057%=      5-min Rain = 0
KBR1 160636Z 24006KT 03/M05 A301 RMK A01 T00291049  RH  057%=      5-min Rain = 0
KBR1 160637Z 24006KT 03/M05 A301 RMK A01 T00291048  RH  057%=      5-min Rain = 0
KBR1 160638Z 24006KT 03/M05 A301 RMK A01 T00291048  RH  057%=      5-min Rain = 0
KBR1 160639Z 24006KT 03/M05 A301 RMK A01 T00291048  RH  057%=      5-min Rain = 0
KBR1 160640Z 24006KT 03/M05 A301 RMK A01 T00291048  RH  057%=      5-min Rain = 0
KBR1 160641Z 25006KT 03/M05 A301 RMK A01 T00301048  RH  057%=      5-min Rain = 0
KBR1 160642Z 25006KT 03/M05 A301 RMK A01 T00311047  RH  057%=      5-min Rain = 0
KBR1 160643Z 25005KT 03/M05 A301 RMK A01 T00311046  RH  057%=      5-min Rain = 0
KBR1 160644Z 25005KT 03/M05 A301 RMK A01 T00331046  RH  056%=      5-min Rain = 0
KBR1 160645Z 25005KT 03/M05 A301 RMK A01 T00331046  RH  056%=      5-min Rain = 0
KBR1 160646Z 25005KT 03/M05 A301 RMK A01 T00331047  RH  056%=      5-min Rain = 0
KBR1 160647Z 25004KT 03/M05 A301 RMK A01 T00321048  RH  056%=      5-min Rain = 0
KBR1 160648Z 25004KT 03/M05 A301 RMK A01 T00321048  RH  056%=      5-min Rain = 0
KBR1 160649Z 25004KT 03/M05 A301 RMK A01 T00311048  RH  056%=      5-min Rain = 0
KBR1 160650Z 25003KT 03/M05 A301 RMK A01 T00301048  RH  056%=      5-min Rain = 0
KBR1 160651Z 26003KT 03/M05 A301 RMK A01 T00291048  RH  057%=      5-min Rain = 0
KBR1 160652Z 26003KT 03/M05 A301 RMK A01 T00291047  RH  057%=      5-min Rain = 0
KBR1 160653Z 26003KT 03/M05 A301 RMK A01 T00291047  RH  057%=      5-min Rain = 0
KBR1 160654Z 25003KT 03/M05 A301 RMK A01 T00291048  RH  057%=      5-min Rain = 0
KBR1 160655Z 25003KT 03/M05 A301 RMK A01 T00281047  RH  058%=      5-min Rain = 0
KBR1 160656Z 25003KT 03/M05 A301 RMK A01 T00281047  RH  058%=      5-min Rain = 0
KBR1 160657Z 24003KT 03/M05 A301 RMK A01 T00281045  RH  059%=      5-min Rain = 0
KBR1 160658Z 25003KT 03/M04 A301 RMK A01 T00301043  RH  059%=      5-min Rain = 0
KBR1 160659Z 25004KT 03/M04 A301 RMK A01 T00321042  RH  059%=      5-min Rain = 0
KBR1 160700Z 25004KT 03/M04 A301 RMK A01 T00341041  RH  058%=      5-min Rain = 0
KBR1 160701Z 25004KT 04/M04 A301 RMK A01 T00361041  RH  057%=      5-min Rain = 0
KBR1 160702Z 24005KT 04/M04 A301 RMK A01 T00371041  RH  057%=      5-min Rain = 0
KBR1 160703Z 24004KT 04/M04 A301 RMK A01 T00381041  RH  056%=      5-min Rain = 0
KBR1 160704Z 25004KT 04/M04 A301 RMK A01 T00391041  RH  056%=      5-min Rain = 0
KBR1 160705Z 25004KT 04/M04 A301 RMK A01 T00391041  RH  056%=      5-min Rain = 0
KBR1 160706Z 25004KT 04/M04 A301 RMK A01 T00391042  RH  055%=      5-min Rain = 0
KBR1 160707Z 25003KT 04/M04 A301 RMK A01 T00371043  RH  056%=      5-min Rain = 0
KBR1 160708Z 25003KT 04/M04 A301 RMK A01 T00371043  RH  056%=      5-min Rain = 0
KBR1 160709Z 25003KT 04/M05 A3009 RMK A01 T00351046  RH  056%=      5-min Rain = 0
KBR1 160710Z 25002KT 03/M05 A3009 RMK A01 T00331046  RH  056%=      5-min Rain = 0
KBR1 160711Z 25002KT 03/M05 A3009 RMK A01 T00321046  RH  057%=      5-min Rain = 0
KBR1 160712Z 26002KT 03/M05 A3009 RMK A01 T00311045  RH  057%=      5-min Rain = 0
KBR1 160713Z 27002KT 03/M05 A3009 RMK A01 T00311045  RH  058%=      5-min Rain = 0
KBR1 160714Z 27002KT 03/M04 A3009 RMK A01 T00311044  RH  058%=      5-min Rain = 0
KBR1 160715Z 27003KT 03/M04 A3009 RMK A01 T00321044  RH  058%=      5-min Rain = 0
KBR1 160716Z 27003KT 03/M04 A3009 RMK A01 T00321043  RH  058%=      5-min Rain = 0
KBR1 160717Z 26003KT 03/M04 A3009 RMK A01 T00331043  RH  058%=      5-min Rain = 0
KBR1 160718Z 25003KT 03/M04 A3009 RMK A01 T00331042  RH  058%=      5-min Rain = 0
KBR1 160719Z 24003KT 03/M04 A3009 RMK A01 T00331042  RH  058%=      5-min Rain = 0
KBR1 160720Z 24003KT 03/M04 A3009 RMK A01 T00331041  RH  058%=      5-min Rain = 0
KBR1 160721Z 23003KT 04/M04 A3009 RMK A01 T00351039  RH  058%=      5-min Rain = 0
KBR1 160722Z 23003KT 04/M04 A3009 RMK A01 T00361039  RH  058%=      5-min Rain = 0
KBR1 160723Z 23003KT 04/M04 A3009 RMK A01 T00371039  RH  057%=      5-min Rain = 0
KBR1 160724Z 23004KT 04/M04 A3009 RMK A01 T00371040  RH  057%=      5-min Rain = 0
KBR1 160725Z 23004KT 04/M04 A3009 RMK A01 T00371041  RH  057%=      5-min Rain = 0
KBR1 160726Z 23004KT 04/M04 A3009 RMK A01 T00361041  RH  057%=      5-min Rain = 0
KBR1 160727Z 23004KT 04/M04 A3009 RMK A01 T00361041  RH  057%=      5-min Rain = 0
KBR1 160728Z 23004KT 04/M04 A3009 RMK A01 T00361041  RH  057%=      5-min Rain = 0
KBR1 160729Z 23004KT 04/M04 A3009 RMK A01 T00361041  RH  057%=      5-min Rain = 0
KBR1 160730Z 23004KT 04/M04 A3009 RMK A01 T00351042  RH  057%=      5-min Rain = 0
KBR1 160731Z 23004KT 03/M04 A3009 RMK A01 T00341043  RH  057%=      5-min Rain = 0
KBR1 160732Z 23004KT 03/M04 A3009 RMK A01 T00331043  RH  057%=      5-min Rain = 0
KBR1 160733Z 24004KT 03/M04 A3009 RMK A01 T00321044  RH  058%=      5-min Rain = 0
KBR1 160734Z 24005KT 03/M04 A3009 RMK A01 T00311044  RH  058%=      5-min Rain = 0
KBR1 160735Z 24004KT 03/M05 A3009 RMK A01 T00291046  RH  058%=      5-min Rain = 0
KBR1 160736Z 24004KT 03/M05 A3009 RMK A01 T00281046  RH  058%=      5-min Rain = 0
KBR1 160737Z 23004KT 03/M05 A3009 RMK A01 T00271045  RH  059%=      5-min Rain = 0
KBR1 160738Z 23004KT 03/M05 A3009 RMK A01 T00261045  RH  059%=      5-min Rain = 0
KBR1 160739Z 22004KT 03/M04 A3008 RMK A01 T00261044  RH  060%=      5-min Rain = 0
KBR1 160740Z 22004KT 03/M04 A3008 RMK A01 T00261044  RH  060%=      5-min Rain = 0
KBR1 160741Z 21005KT 03/M04 A3008 RMK A01 T00261044  RH  060%=      5-min Rain = 0
KBR1 160742Z 21005KT 03/M05 A3008 RMK A01 T00251045  RH  060%=      5-min Rain = 0
KBR1 160743Z 21005KT 02/M05 A3008 RMK A01 T00241046  RH  060%=      5-min Rain = 0
KBR1 160744Z 21005KT 02/M05 A3008 RMK A01 T00231046  RH  060%=      5-min Rain = 0
KBR1 160745Z 21006KT 02/M05 A3008 RMK A01 T00231045  RH  061%=      5-min Rain = 0
KBR1 160746Z 20006KT 02/M04 A3008 RMK A01 T00231044  RH  061%=      5-min Rain = 0
KBR1 160747Z 20006KT 02/M04 A3008 RMK A01 T00231043  RH  062%=      5-min Rain = 0
KBR1 160748Z 20006KT 02/M04 A3008 RMK A01 T00231043  RH  062%=      5-min Rain = 0
KBR1 160749Z 20006KT 02/M04 A3008 RMK A01 T00241041  RH  062%=      5-min Rain = 0
KBR1 160750Z 20006KT 03/M04 A3008 RMK A01 T00251041  RH  062%=      5-min Rain = 0
KBR1 160751Z 20006KT 03/M04 A3008 RMK A01 T00251041  RH  062%=      5-min Rain = 0
KBR1 160752Z 21006KT 03/M04 A3008 RMK A01 T00261041  RH  062%=      5-min Rain = 0
KBR1 160753Z 20007KT 03/M04 A3008 RMK A01 T00261040  RH  062%=      5-min Rain = 0
KBR1 160754Z 21007KT 03/M04 A3008 RMK A01 T00261040  RH  062%=      5-min Rain = 0
KBR1 160755Z 21007KT 03/M04 A3008 RMK A01 T00261041  RH  062%=      5-min Rain = 0
KBR1 160756Z 20007KT 03/M04 A3008 RMK A01 T00261040  RH  062%=      5-min Rain = 0
KBR1 160757Z 20007KT 03/M04 A3008 RMK A01 T00261040  RH  062%=      5-min Rain = 0
KBR1 160758Z 20007KT 03/M04 A3008 RMK A01 T00261039  RH  062%=      5-min Rain = 0
KBR1 160759Z 20007KT 03/M04 A3008 RMK A01 T00261040  RH  062%=      5-min Rain = 0
KBR1 160800Z 20006KT 03/M04 A3007 RMK A01 T00261040  RH  062%=      5-min Rain = 0
KBR1 160801Z 20006KT 03/M04 A3007 RMK A01 T00261039  RH  062%=      5-min Rain = 0
KBR1 160802Z 21006KT 03/M04 A3007 RMK A01 T00261039  RH  062%=      5-min Rain = 0
KBR1 160803Z 21005KT 03/M04 A3007 RMK A01 T00271039  RH  062%=      5-min Rain = 0
KBR1 160804Z 21005KT 03/M04 A3007 RMK A01 T00271039  RH  062%=      5-min Rain = 0
KBR1 160805Z 21005KT 03/M04 A3007 RMK A01 T00281039  RH  062%=      5-min Rain = 0
KBR1 160806Z 22005KT 03/M04 A3007 RMK A01 T00281039  RH  061%=      5-min Rain = 0
KBR1 160807Z 21005KT 03/M04 A3007 RMK A01 T00281039  RH  061%=      5-min Rain = 0
KBR1 160808Z 21005KT 03/M04 A3007 RMK A01 T00281039  RH  061%=      5-min Rain = 0
KBR1 160809Z 21004KT 03/M04 A3007 RMK A01 T00291038  RH  062%=      5-min Rain = 0
KBR1 160810Z 20005KT 03/M04 A3007 RMK A01 T00301036  RH  062%=      5-min Rain = 0
KBR1 160811Z 20005KT 03/M04 A3007 RMK A01 T00331035  RH  061%=      5-min Rain = 0
KBR1 160812Z 21005KT 03/M04 A3007 RMK A01 T00341035  RH  061%=      5-min Rain = 0
KBR1 160813Z 21005KT 03/M04 A3007 RMK A01 T00341035  RH  060%=      5-min Rain = 0
KBR1 160814Z 21005KT 03/M04 A3007 RMK A01 T00341036  RH  060%=      5-min Rain = 0
KBR1 160815Z 21006KT 03/M04 A3007 RMK A01 T00341036  RH  060%=      5-min Rain = 0
KBR1 160816Z 21006KT 03/M04 A3007 RMK A01 T00331037  RH  060%=      5-min Rain = 0
KBR1 160817Z 20006KT 03/M04 A3007 RMK A01 T00321037  RH  061%=      5-min Rain = 0
KBR1 160818Z 20007KT 03/M04 A3007 RMK A01 T00311037  RH  061%=      5-min Rain = 0
KBR1 160819Z 21007KT 03/M04 A3007 RMK A01 T00311037  RH  061%=      5-min Rain = 0
KBR1 160820Z 21008KT 03/M04 A3007 RMK A01 T00311036  RH  061%=      5-min Rain = 0
KBR1 160821Z 21007KT 03/M04 A3007 RMK A01 T00311036  RH  062%=      5-min Rain = 0
KBR1 160822Z 21007KT 03/M04 A3007 RMK A01 T00321035  RH  061%=      5-min Rain = 0
KBR1 160823Z 21007KT 03/M04 A3007 RMK A01 T00321035  RH  061%=      5-min Rain = 0
KBR1 160824Z 21007KT 03/M04 A3007 RMK A01 T00311036  RH  061%=      5-min Rain = 0
KBR1 160825Z 21006KT 03/M04 A3007 RMK A01 T00291037  RH  062%=      5-min Rain = 0
KBR1 160826Z 21006KT 03/M04 A3007 RMK A01 T00281037  RH  062%=      5-min Rain = 0
KBR1 160827Z 21006KT 03/M04 A3007 RMK A01 T00281037  RH  063%=      5-min Rain = 0
KBR1 160828Z 21006KT 03/M04 A3007 RMK A01 T00271037  RH  063%=      5-min Rain = 0
KBR1 160829Z 21005KT 03/M04 A3007 RMK A01 T00261037  RH  063%=      5-min Rain = 0
KBR1 160830Z 21005KT 03/M04 A3007 RMK A01 T00261037  RH  063%=      5-min Rain = 0
KBR1 160831Z 21005KT 03/M04 A3007 RMK A01 T00261036  RH  064%=      5-min Rain = 0
KBR1 160832Z 21005KT 03/M04 A3007 RMK A01 T00261036  RH  064%=      5-min Rain = 0
KBR1 160833Z 21005KT 03/M04 A3007 RMK A01 T00261036  RH  064%=      5-min Rain = 0
KBR1 160834Z 21005KT 03/M04 A3007 RMK A01 T00261036  RH  063%=      5-min Rain = 0
KBR1 160835Z 22005KT 03/M04 A3007 RMK A01 T00261037  RH  063%=      5-min Rain = 0
KBR1 160836Z 22004KT 03/M04 A3007 RMK A01 T00261036  RH  063%=      5-min Rain = 0
KBR1 160837Z 22004KT 03/M04 A3007 RMK A01 T00261037  RH  063%=      5-min Rain = 0
KBR1 160838Z 22003KT 03/M04 A3007 RMK A01 T00261038  RH  063%=      5-min Rain = 0
KBR1 160839Z 23003KT 03/M04 A3007 RMK A01 T00251039  RH  063%=      5-min Rain = 0
KBR1 160840Z 22003KT 02/M04 A3007 RMK A01 T00241039  RH  063%=      5-min Rain = 0
KBR1 160841Z 22003KT 02/M04 A3007 RMK A01 T00231039  RH  063%=      5-min Rain = 0
KBR1 160842Z 22002KT 02/M04 A3007 RMK A01 T00231039  RH  064%=      5-min Rain = 0
KBR1 160843Z 22003KT 02/M04 A3007 RMK A01 T00221039  RH  064%=      5-min Rain = 0
KBR1 160844Z 22003KT 02/M04 A3007 RMK A01 T00221039  RH  064%=      5-min Rain = 0
KBR1 160845Z 22003KT 02/M04 A3007 RMK A01 T00221039  RH  064%=      5-min Rain = 0
KBR1 160846Z 23003KT 02/M04 A3007 RMK A01 T00221039  RH  064%=      5-min Rain = 0
KBR1 160847Z 24002KT 02/M04 A3007 RMK A01 T00221039  RH  064%=      5-min Rain = 0
KBR1 160848Z 24002KT 02/M04 A3007 RMK A01 T00221039  RH  064%=      5-min Rain = 0
KBR1 160849Z 24002KT 02/M04 A3007 RMK A01 T00211040  RH  064%=      5-min Rain = 0
KBR1 160850Z 24002KT 02/M04 A3007 RMK A01 T00211040  RH  064%=      5-min Rain = 0
KBR1 160851Z 24002KT 02/M04 A3007 RMK A01 T00211039  RH  064%=      5-min Rain = 0
KBR1 160852Z 24002KT 02/M04 A3007 RMK A01 T00211039  RH  064%=      5-min Rain = 0
KBR1 160853Z 24002KT 02/M04 A3007 RMK A01 T00211040  RH  064%=      5-min Rain = 0
KBR1 160854Z 25003KT 02/M04 A3007 RMK A01 T00201041  RH  064%=      5-min Rain = 0
KBR1 160855Z 25002KT 02/M04 A3007 RMK A01 T00191040  RH  065%=      5-min Rain = 0
KBR1 160856Z 25002KT 02/M04 A3007 RMK A01 T00201039  RH  065%=      5-min Rain = 0
KBR1 160857Z 25002KT 02/M04 A3007 RMK A01 T00211038  RH  065%=      5-min Rain = 0
KBR1 160858Z 25003KT 02/M04 A3007 RMK A01 T00221038  RH  064%=      5-min Rain = 0
KBR1 160859Z 24003KT 02/M04 A3007 RMK A01 T00221038  RH  064%=      5-min Rain = 0
KBR1 160900Z 24004KT 02/M04 A3007 RMK A01 T00231037  RH  065%=      5-min Rain = 0
KBR1 160901Z 24005KT 02/M04 A3007 RMK A01 T00241036  RH  065%=      5-min Rain = 0
KBR1 160902Z 24004KT 03/M04 A3007 RMK A01 T00251035  RH  064%=      5-min Rain = 0
KBR1 160903Z 25003KT 03/M04 A3007 RMK A01 T00261036  RH  064%=      5-min Rain = 0
KBR1 160904Z 26003KT 03/M04 A3007 RMK A01 T00261037  RH  063%=      5-min Rain = 0
KBR1 160905Z 26003KT 03/M04 A3007 RMK A01 T00251038  RH  063%=      5-min Rain = 0
KBR1 160906Z 26003KT 02/M04 A3007 RMK A01 T00241037  RH  064%=      5-min Rain = 0
KBR1 160907Z 26003KT 03/M03 A3007 RMK A01 T00251034  RH  065%=      5-min Rain = 0
KBR1 160908Z 26003KT 03/M03 A3007 RMK A01 T00261034  RH  065%=      5-min Rain = 0
KBR1 160909Z 26003KT 03/M04 A3007 RMK A01 T00261035  RH  064%=      5-min Rain = 0
KBR1 160910Z 26003KT 03/M04 A3007 RMK A01 T00261035  RH  064%=      5-min Rain = 0
KBR1 160911Z 26003KT 03/M04 A3007 RMK A01 T00251035  RH  065%=      5-min Rain = 0
KBR1 160912Z 27003KT 02/M03 A3007 RMK A01 T00241034  RH  065%=      5-min Rain = 0
KBR1 160913Z 27003KT 02/M04 A3007 RMK A01 T00241035  RH  065%=      5-min Rain = 0
KBR1 160914Z 27003KT 02/M04 A3007 RMK A01 T00231036  RH  065%=      5-min Rain = 0
KBR1 160915Z 27004KT 02/M04 A3007 RMK A01 T00211037  RH  066%=      5-min Rain = 0
KBR1 160916Z 26004KT 02/M04 A3007 RMK A01 T00201035  RH  067%=      5-min Rain = 0
KBR1 160917Z 27004KT 02/M03 A3007 RMK A01 T00201034  RH  067%=      5-min Rain = 0
KBR1 160918Z 26004KT 02/M03 A3007 RMK A01 T00211033  RH  067%=      5-min Rain = 0
KBR1 160919Z 26004KT 02/M03 A3007 RMK A01 T00221032  RH  067%=      5-min Rain = 0
KBR1 160920Z 25004KT 02/M03 A3007 RMK A01 T00231031  RH  067%=      5-min Rain = 0
KBR1 160921Z 25004KT 02/M03 A3007 RMK A01 T00241031  RH  067%=      5-min Rain = 0
KBR1 160922Z 25004KT 02/M03 A3007 RMK A01 T00241031  RH  067%=      5-min Rain = 0
KBR1 160923Z 26004KT 03/M03 A3007 RMK A01 T00251030  RH  067%=      5-min Rain = 0
KBR1 160924Z 26003KT 03/M03 A3007 RMK A01 T00261030  RH  067%=      5-min Rain = 0
KBR1 160925Z 26003KT 03/M03 A3007 RMK A01 T00261030  RH  067%=      5-min Rain = 0
KBR1 160926Z 26003KT 03/M03 A3007 RMK A01 T00271029  RH  067%=      5-min Rain = 0
KBR1 160927Z 26003KT 03/M03 A3007 RMK A01 T00261030  RH  066%=      5-min Rain = 0
KBR1 160928Z 26003KT 03/M03 A3007 RMK A01 T00261029  RH  067%=      5-min Rain = 0
KBR1 160929Z 26002KT 03/M03 A3006 RMK A01 T00271029  RH  067%=      5-min Rain = 0
KBR1 160930Z 26002KT 03/M03 A3006 RMK A01 T00271029  RH  067%=      5-min Rain = 0
KBR1 160931Z 26002KT 03/M03 A3006 RMK A01 T00271030  RH  066%=      5-min Rain = 0
KBR1 160932Z 26003KT 03/M03 A3006 RMK A01 T00261030  RH  066%=      5-min Rain = 0
KBR1 160933Z 26003KT 03/M03 A3006 RMK A01 T00261029  RH  067%=      5-min Rain = 0
KBR1 160934Z 26003KT 03/M03 A3006 RMK A01 T00261028  RH  068%=      5-min Rain = 0
KBR1 160935Z 26003KT 03/M03 A3006 RMK A01 T00271027  RH  068%=      5-min Rain = 0
KBR1 160936Z 25003KT 03/M03 A3006 RMK A01 T00271026  RH  068%=      5-min Rain = 0
KBR1 160937Z 25003KT 03/M03 A3006 RMK A01 T00281026  RH  067%=      5-min Rain = 0
KBR1 160938Z 25003KT 03/M03 A3006 RMK A01 T00291026  RH  067%=      5-min Rain = 0
KBR1 160939Z 25003KT 03/M03 A3006 RMK A01 T00291026  RH  067%=      5-min Rain = 0
KBR1 160940Z 25003KT 03/M03 A3006 RMK A01 T00301027  RH  067%=      5-min Rain = 0
KBR1 160941Z 25003KT 03/M03 A3006 RMK A01 T00301027  RH  067%=      5-min Rain = 0
KBR1 160942Z 26004KT 03/M03 A3006 RMK A01 T00301026  RH  067%=      5-min Rain = 0
KBR1 160943Z 25004KT 03/M03 A3006 RMK A01 T00301025  RH  067%=      5-min Rain = 0
KBR1 160944Z 25004KT 03/M03 A3006 RMK A01 T00311025  RH  067%=      5-min Rain = 0
KBR1 160945Z 25004KT 03/M03 A3006 RMK A01 T00311025  RH  066%=      5-min Rain = 0
KBR1 160946Z 25004KT 03/M03 A3006 RMK A01 T00321025  RH  066%=      5-min Rain = 0
KBR1 160947Z 25004KT 03/M02 A3006 RMK A01 T00321024  RH  066%=      5-min Rain = 0
KBR1 160948Z 24005KT 03/M03 A3006 RMK A01 T00321025  RH  066%=      5-min Rain = 0
KBR1 160949Z 24005KT 03/M02 A3006 RMK A01 T00331024  RH  066%=      5-min Rain = 0
KBR1 160950Z 24005KT 03/M03 A3006 RMK A01 T00321026  RH  066%=      5-min Rain = 0
KBR1 160951Z 23005KT 03/M03 A3006 RMK A01 T00311027  RH  066%=      5-min Rain = 0
KBR1 160952Z 23005KT 03/M03 A3006 RMK A01 T00291028  RH  066%=      5-min Rain = 0
KBR1 160953Z 23005KT 03/M03 A3006 RMK A01 T00281028  RH  067%=      5-min Rain = 0
KBR1 160954Z 23005KT 03/M03 A3005 RMK A01 T00261029  RH  067%=      5-min Rain = 0
KBR1 160955Z 23005KT 03/M03 A3005 RMK A01 T00251029  RH  067%=      5-min Rain = 0
KBR1 160956Z 23005KT 02/M03 A3005 RMK A01 T00241029  RH  068%=      5-min Rain = 0
KBR1 160957Z 24006KT 02/M03 A3005 RMK A01 T00231029  RH  069%=      5-min Rain = 0
KBR1 160958Z 23006KT 02/M03 A3005 RMK A01 T00231027  RH  069%=      5-min Rain = 0
KBR1 160959Z 24006KT 02/M03 A3005 RMK A01 T00241027  RH  069%=      5-min Rain = 0
KBR1 161000Z 24006KT 02/M03 A3005 RMK A01 T00241027  RH  069%=      5-min Rain = 0
KBR1 161001Z 24006KT 02/M03 A3006 RMK A01 T00241027  RH  069%=      5-min Rain = 0
KBR1 161002Z 23006KT 03/M03 A3006 RMK A01 T00251026  RH  069%=      5-min Rain = 0
KBR1 161003Z 24006KT 03/M03 A3006 RMK A01 T00261026  RH  069%=      5-min Rain = 0
KBR1 161004Z 23006KT 03/M03 A3006 RMK A01 T00251026  RH  069%=      5-min Rain = 0
KBR1 161005Z 23006KT 03/M03 A3006 RMK A01 T00251026  RH  069%=      5-min Rain = 0
KBR1 161006Z 24006KT 03/M03 A3006 RMK A01 T00251026  RH  069%=      5-min Rain = 0
KBR1 161007Z 24006KT 03/M03 A3006 RMK A01 T00251026  RH  069%=      5-min Rain = 0
KBR1 161008Z 23006KT 03/M03 A3005 RMK A01 T00251025  RH  069%=      5-min Rain = 0
KBR1 161009Z 24006KT 03/M03 A3005 RMK A01 T00251026  RH  069%=      5-min Rain = 0
KBR1 161010Z 23006KT 02/M03 A3005 RMK A01 T00241027  RH  069%=      5-min Rain = 0
KBR1 161011Z 24006KT 02/M03 A3005 RMK A01 T00231028  RH  069%=      5-min Rain = 0
KBR1 161012Z 24005KT 02/M03 A3005 RMK A01 T00211028  RH  070%=      5-min Rain = 0
KBR1 161013Z 24006KT 02/M03 A3005 RMK A01 T00211027  RH  071%=      5-min Rain = 0
KBR1 161014Z 24006KT 02/M03 A3005 RMK A01 T00211027  RH  071%=      5-min Rain = 0
KBR1 161015Z 23006KT 02/M03 A3005 RMK A01 T00201027  RH  071%=      5-min Rain = 0
KBR1 161016Z 24006KT 02/M03 A3005 RMK A01 T00211027  RH  071%=      5-min Rain = 0
KBR1 161017Z 23006KT 02/M03 A3005 RMK A01 T00201028  RH  071%=      5-min Rain = 0
KBR1 161018Z 23005KT 02/M03 A3005 RMK A01 T00181029  RH  071%=      5-min Rain = 0
KBR1 161019Z 23005KT 02/M03 A3005 RMK A01 T00171030  RH  071%=      5-min Rain = 0
KBR1 161020Z 23005KT 02/M03 A3005 RMK A01 T00161031  RH  071%=      5-min Rain = 0
KBR1 161021Z 23006KT 01/M03 A3005 RMK A01 T00141031  RH  072%=      5-min Rain = 0
KBR1 161022Z 23005KT 01/M03 A3005 RMK A01 T00131031  RH  072%=      5-min Rain = 0
KBR1 161023Z 23005KT 01/M03 A3005 RMK A01 T00131031  RH  073%=      5-min Rain = 0
KBR1 161024Z 23005KT 01/M03 A3005 RMK A01 T00121031  RH  073%=      5-min Rain = 0
KBR1 161025Z 23005KT 01/M03 A3005 RMK A01 T00121030  RH  073%=      5-min Rain = 0
KBR1 161026Z 24005KT 01/M03 A3005 RMK A01 T00121030  RH  074%=      5-min Rain = 0
KBR1 161027Z 23005KT 01/M03 A3005 RMK A01 T00111030  RH  074%=      5-min Rain = 0
KBR1 161028Z 24005KT 01/M03 A3005 RMK A01 T00111030  RH  074%=      5-min Rain = 0
KBR1 161029Z 24005KT 01/M03 A3005 RMK A01 T00101031  RH  074%=      5-min Rain = 0
KBR1 161030Z 24005KT 01/M03 A3005 RMK A01 T00091031  RH  074%=      5-min Rain = 0
KBR1 161031Z 24005KT 01/M03 A3005 RMK A01 T00081032  RH  074%=      5-min Rain = 0
KBR1 161032Z 25005KT 01/M03 A3005 RMK A01 T00081032  RH  075%=      5-min Rain = 0
KBR1 161033Z 23005KT 01/M03 A3005 RMK A01 T00071032  RH  075%=      5-min Rain = 0
KBR1 161034Z 25005KT 01/M03 A3005 RMK A01 T00071032  RH  075%=      5-min Rain = 0
KBR1 161035Z 23005KT 01/M03 A3005 RMK A01 T00061032  RH  076%=      5-min Rain = 0
KBR1 161036Z 25005KT 01/M03 A3005 RMK A01 T00061032  RH  076%=      5-min Rain = 0
KBR1 161037Z 23005KT 01/M03 A3005 RMK A01 T00061031  RH  076%=      5-min Rain = 0
KBR1 161038Z 24005KT 01/M03 A3005 RMK A01 T00061032  RH  076%=      5-min Rain = 0
KBR1 161039Z 24005KT 01/M03 A3005 RMK A01 T00051032  RH  076%=      5-min Rain = 0
KBR1 161040Z 23005KT 01/M03 A3005 RMK A01 T00051032  RH  076%=      5-min Rain = 0
KBR1 161041Z 24005KT 01/M03 A3005 RMK A01 T00051033  RH  076%=      5-min Rain = 0
KBR1 161042Z 24005KT 01/M03 A3005 RMK A01 T00051033  RH  076%=      5-min Rain = 0
KBR1 161043Z 24005KT 00/M03 A3005 RMK A01 T00041033  RH  076%=      5-min Rain = 0
KBR1 161044Z 23005KT 00/M03 A3005 RMK A01 T00031034  RH  076%=      5-min Rain = 0
KBR1 161045Z 23004KT 00/M03 A3004 RMK A01 T00021034  RH  077%=      5-min Rain = 0
KBR1 161046Z 23005KT 00/M03 A3004 RMK A01 T00021033  RH  077%=      5-min Rain = 0
KBR1 161047Z 23005KT 00/M03 A3004 RMK A01 T00021033  RH  077%=      5-min Rain = 0
KBR1 161048Z 23005KT 00/M03 A3004 RMK A01 T00021033  RH  077%=      5-min Rain = 0
KBR1 161049Z 23005KT 00/M03 A3004 RMK A01 T00031031  RH  078%=      5-min Rain = 0
KBR1 161050Z 23005KT 00/M03 A3004 RMK A01 T00041031  RH  077%=      5-min Rain = 0
KBR1 161051Z 23005KT 01/M03 A3004 RMK A01 T00051031  RH  077%=      5-min Rain = 0
KBR1 161052Z 23005KT 01/M03 A3004 RMK A01 T00061031  RH  077%=      5-min Rain = 0
KBR1 161053Z 23005KT 01/M03 A3004 RMK A01 T00061031  RH  076%=      5-min Rain = 0
KBR1 161054Z 22005KT 01/M03 A3004 RMK A01 T00051032  RH  076%=      5-min Rain = 0
KBR1 161055Z 22005KT 01/M03 A3004 RMK A01 T00051033  RH  076%=      5-min Rain = 0
KBR1 161056Z 22006KT 00/M03 A3004 RMK A01 T00041033  RH  076%=      5-min Rain = 0
KBR1 161057Z 23006KT 00/M03 A3004 RMK A01 T00031034  RH  076%=      5-min Rain = 0
KBR1 161058Z 22006KT 00/M03 A3004 RMK A01 T00031033  RH  077%=      5-min Rain = 0
KBR1 161059Z 22006KT 00/M03 A3004 RMK A01 T00021033  RH  077%=      5-min Rain = 0
KBR1 161100Z 23006KT 00/M03 A3004 RMK A01 T00031032  RH  077%=      5-min Rain = 0
KBR1 161101Z 22006KT 00/M03 A3004 RMK A01 T00031032  RH  077%=      5-min Rain = 0
KBR1 161102Z 22006KT 00/M03 A3004 RMK A01 T00031032  RH  077%=      5-min Rain = 0
KBR1 161103Z 22005KT 00/M03 A3004 RMK A01 T00041032  RH  077%=      5-min Rain = 0
KBR1 161104Z 21005KT 00/M03 A3004 RMK A01 T00041031  RH  077%=      5-min Rain = 0
KBR1 161105Z 22005KT 01/M03 A3004 RMK A01 T00051031  RH  077%=      5-min Rain = 0
KBR1 161106Z 22005KT 01/M03 A3004 RMK A01 T00051031  RH  077%=      5-min Rain = 0
KBR1 161107Z 22005KT 01/M03 A3004 RMK A01 T00051031  RH  077%=      5-min Rain = 0
KBR1 161108Z 22005KT 01/M03 A3003 RMK A01 T00061031  RH  077%=      5-min Rain = 0
KBR1 161109Z 21005KT 01/M03 A3003 RMK A01 T00061030  RH  077%=      5-min Rain = 0
KBR1 161110Z 22006KT 01/M03 A3003 RMK A01 T00061030  RH  077%=      5-min Rain = 0
KBR1 161111Z 22006KT 01/M03 A3003 RMK A01 T00071030  RH  077%=      5-min Rain = 0
KBR1 161112Z 22006KT 01/M03 A3003 RMK A01 T00071029  RH  077%=      5-min Rain = 0
KBR1 161113Z 22006KT 01/M03 A3004 RMK A01 T00081028  RH  076%=      5-min Rain = 0
KBR1 161114Z 22006KT 01/M03 A3004 RMK A01 T00081029  RH  076%=      5-min Rain = 0
KBR1 161115Z 22006KT 01/M03 A3004 RMK A01 T00081029  RH  076%=      5-min Rain = 0
KBR1 161116Z 22006KT 01/M03 A3003 RMK A01 T00081030  RH  076%=      5-min Rain = 0
KBR1 161117Z 22006KT 01/M03 A3003 RMK A01 T00081030  RH  076%=      5-min Rain = 0
KBR1 161118Z 22006KT 01/M03 A3003 RMK A01 T00081030  RH  076%=      5-min Rain = 0
KBR1 161119Z 22005KT 01/M03 A3003 RMK A01 T00071030  RH  076%=      5-min Rain = 0
KBR1 161120Z 23005KT 01/M03 A3003 RMK A01 T00071031  RH  076%=      5-min Rain = 0
KBR1 161121Z 23005KT 01/M03 A3003 RMK A01 T00061031  RH  076%=      5-min Rain = 0
KBR1 161122Z 22005KT 01/M03 A3003 RMK A01 T00051032  RH  076%=      5-min Rain = 0
KBR1 161123Z 22005KT 00/M03 A3003 RMK A01 T00041032  RH  076%=      5-min Rain = 0
KBR1 161124Z 23005KT 00/M03 A3003 RMK A01 T00031032  RH  077%=      5-min Rain = 0
KBR1 161125Z 23005KT 00/M03 A3003 RMK A01 T00031032  RH  077%=      5-min Rain = 0
KBR1 161126Z 23005KT 00/M03 A3003 RMK A01 T00031032  RH  078%=      5-min Rain = 0
KBR1 161127Z 23005KT 00/M03 A3004 RMK A01 T00021032  RH  078%=      5-min Rain = 0
KBR1 161128Z 23005KT 00/M03 A3004 RMK A01 T00021033  RH  078%=      5-min Rain = 0
KBR1 161129Z 23004KT 00/M03 A3004 RMK A01 T00021032  RH  078%=      5-min Rain = 0
KBR1 161130Z 23004KT 00/M03 A3004 RMK A01 T00011032  RH  078%=      5-min Rain = 0
KBR1 161131Z 22004KT 00/M03 A3004 RMK A01 T00011032  RH  078%=      5-min Rain = 0
KBR1 161132Z 22005KT 00/M03 A3004 RMK A01 T00011032  RH  078%=      5-min Rain = 0
KBR1 161133Z 22004KT 00/M03 A3004 RMK A01 T00011032  RH  078%=      5-min Rain = 0
KBR1 161134Z 21004KT 00/M03 A3004 RMK A01 T00011033  RH  078%=      5-min Rain = 0
KBR1 161135Z 21005KT 00/M03 A3004 RMK A01 T00011032  RH  078%=      5-min Rain = 0
KBR1 161136Z 21005KT 00/M03 A3004 RMK A01 T00021032  RH  078%=      5-min Rain = 0
KBR1 161137Z 21005KT 00/M03 A3004 RMK A01 T00011033  RH  078%=      5-min Rain = 0
KBR1 161138Z 21006KT 00/M03 A3004 RMK A01 T00011033  RH  078%=      5-min Rain = 0
KBR1 161139Z 21006KT 00/M03 A3004 RMK A01 T00011032  RH  078%=      5-min Rain = 0
KBR1 161140Z 21006KT 00/M03 A3004 RMK A01 T00011032  RH  078%=      5-min Rain = 0
KBR1 161141Z 22006KT 00/M03 A3004 RMK A01 T00011032  RH  078%=      5-min Rain = 0
KBR1 161142Z 22006KT 00/M03 A3004 RMK A01 T00011032  RH  078%=      5-min Rain = 0
KBR1 161143Z 22006KT 00/M03 A3004 RMK A01 T00011032  RH  078%=      5-min Rain = 0
KBR1 161144Z 21006KT 00/M03 A3004 RMK A01 T00011032  RH  078%=      5-min Rain = 0
KBR1 161145Z 22007KT 00/M03 A3004 RMK A01 T00011032  RH  078%=      5-min Rain = 0
KBR1 161146Z 22007KT 00/M03 A3003 RMK A01 T00011032  RH  078%=      5-min Rain = 0
KBR1 161147Z 22007KT 00/M03 A3003 RMK A01 T00011032  RH  078%=      5-min Rain = 0
KBR1 161148Z 22006KT 00/M03 A3003 RMK A01 T00011033  RH  078%=      5-min Rain = 0
KBR1 161149Z 22007KT 00/03 A3003 RMK A01 T00000-33  RH  078%=      5-min Rain = 0
KBR1 161150Z 22007KT M00/M03 A3003 RMK A01 T10011034  RH  078%=      5-min Rain = 0
KBR1 161151Z 22007KT M00/M03 A3003 RMK A01 T10011034  RH  079%=      5-min Rain = 0
KBR1 161152Z 22006KT M00/M03 A3003 RMK A01 T10011033  RH  079%=      5-min Rain = 0
KBR1 161153Z 22006KT M00/M03 A3003 RMK A01 T10011033  RH  079%=      5-min Rain = 0
KBR1 161154Z 22007KT M00/M03 A3004 RMK A01 T10011033  RH  079%=      5-min Rain = 0
KBR1 161155Z 22006KT M00/M03 A3004 RMK A01 T10021034  RH  079%=      5-min Rain = 0
KBR1 161156Z 22006KT M00/M03 A3004 RMK A01 T10021034  RH  079%=      5-min Rain = 0
KBR1 161157Z 22007KT M00/M03 A3004 RMK A01 T10021034  RH  079%=      5-min Rain = 0
KBR1 161158Z 23007KT M00/M03 A3004 RMK A01 T10031034  RH  080%=      5-min Rain = 0
KBR1 161159Z 23006KT M00/M03 A3004 RMK A01 T10021033  RH  080%=      5-min Rain = 0
KBR1 161200Z 23006KT M00/M03 A3004 RMK A01 T10021033  RH  079%=      5-min Rain = 0
KBR1 161201Z 23006KT M00/M03 A3004 RMK A01 T10021034  RH  079%=      5-min Rain = 0
KBR1 161202Z 23007KT M00/M03 A3004 RMK A01 T10021034  RH  079%=      5-min Rain = 0
KBR1 161203Z 23007KT M00/M03 A3004 RMK A01 T10021034  RH  079%=      5-min Rain = 0
KBR1 161204Z 23006KT M00/M04 A3004 RMK A01 T10031035  RH  079%=      5-min Rain = 0
KBR1 161205Z 23006KT M00/M04 A3004 RMK A01 T10041036  RH  079%=      5-min Rain = 0
KBR1 161206Z 23006KT M00/M03 A3004 RMK A01 T10041034  RH  080%=      5-min Rain = 0
KBR1 161207Z 23006KT M00/M03 A3003 RMK A01 T10041034  RH  080%=      5-min Rain = 0
KBR1 161208Z 23006KT M00/M03 A3003 RMK A01 T10031033  RH  080%=      5-min Rain = 0
KBR1 161209Z 23006KT M00/M03 A3003 RMK A01 T10031034  RH  080%=      5-min Rain = 0
KBR1 161210Z 23006KT M00/M03 A3003 RMK A01 T10031034  RH  080%=      5-min Rain = 0
KBR1 161211Z 23006KT M00/M03 A3003 RMK A01 T10041034  RH  080%=      5-min Rain = 0
KBR1 161212Z 23006KT M00/M03 A3003 RMK A01 T10041034  RH  080%=      5-min Rain = 0
KBR1 161213Z 23006KT M00/M03 A3003 RMK A01 T10041034  RH  080%=      5-min Rain = 0
KBR1 161214Z 23006KT M00/M03 A3003 RMK A01 T10031033  RH  080%=      5-min Rain = 0
KBR1 161215Z 23006KT M00/M03 A3003 RMK A01 T10031034  RH  080%=      5-min Rain = 0
KBR1 161216Z 23006KT M00/M04 A3003 RMK A01 T10031035  RH  079%=      5-min Rain = 0
KBR1 161217Z 23005KT M00/M03 A3003 RMK A01 T10041034  RH  080%=      5-min Rain = 0
KBR1 161218Z 23005KT M00/M03 A3003 RMK A01 T10041034  RH  080%=      5-min Rain = 0
KBR1 161219Z 23005KT M00/M03 A3003 RMK A01 T10031034  RH  080%=      5-min Rain = 0
KBR1 161220Z 23005KT M00/M03 A3003 RMK A01 T10031034  RH  080%=      5-min Rain = 0
KBR1 161221Z 23004KT M00/M03 A3003 RMK A01 T10031034  RH  080%=      5-min Rain = 0
KBR1 161222Z 23004KT M00/M03 A3003 RMK A01 T10031034  RH  080%=      5-min Rain = 0
KBR1 161223Z 23004KT M00/M03 A3003 RMK A01 T10031034  RH  080%=      5-min Rain = 0
KBR1 161224Z 23004KT M00/M03 A3003 RMK A01 T10031034  RH  080%=      5-min Rain = 0
KBR1 161225Z 23004KT M00/M03 A3003 RMK A01 T10041034  RH  080%=      5-min Rain = 0
KBR1 161226Z 23004KT M00/M03 A3003 RMK A01 T10041034  RH  080%=      5-min Rain = 0
KBR1 161227Z 24004KT M00/M03 A3003 RMK A01 T10041034  RH  080%=      5-min Rain = 0
KBR1 161228Z 24005KT M00/M03 A3003 RMK A01 T10031033  RH  080%=      5-min Rain = 0
KBR1 161229Z 23005KT M00/M03 A3003 RMK A01 T10021032  RH  080%=      5-min Rain = 0
KBR1 161230Z 23005KT M00/M03 A3003 RMK A01 T10011031  RH  080%=      5-min Rain = 0
KBR1 161231Z 23005KT 00/03 A3003 RMK A01 T00-00-31  RH  080%=      5-min Rain = 0
KBR1 161232Z 23005KT 00/03 A3003 RMK A01 T00-00-32  RH  079%=      5-min Rain = 0
KBR1 161233Z 23004KT 00/03 A3003 RMK A01 T00000-33  RH  079%=      5-min Rain = 0
KBR1 161234Z 23004KT 00/03 A3003 RMK A01 T00-00-33  RH  079%=      5-min Rain = 0
KBR1 161235Z 23004KT 00/03 A3003 RMK A01 T00-00-33  RH  079%=      5-min Rain = 0
KBR1 161236Z 23004KT 00/03 A3003 RMK A01 T00-00-33  RH  079%=      5-min Rain = 0
KBR1 161237Z 24003KT 00/03 A3003 RMK A01 T00-00-33  RH  079%=      5-min Rain = 0
KBR1 161238Z 24003KT M00/M03 A3003 RMK A01 T10011032  RH  079%=      5-min Rain = 0
KBR1 161239Z 24003KT 00/03 A3003 RMK A01 T00-00-32  RH  079%=      5-min Rain = 0
KBR1 161240Z 23003KT 00/03 A3003 RMK A01 T00-00-32  RH  079%=      5-min Rain = 0
KBR1 161241Z 23003KT 00/03 A3003 RMK A01 T00000-32  RH  079%=      5-min Rain = 0
KBR1 161242Z 22003KT 00/03 A3003 RMK A01 T00000-32  RH  079%=      5-min Rain = 0
KBR1 161243Z 22004KT 00/03 A3003 RMK A01 T00000-32  RH  079%=      5-min Rain = 0
KBR1 161244Z 22004KT 00/03 A3003 RMK A01 T00000-32  RH  079%=      5-min Rain = 0
KBR1 161245Z 22005KT 00/03 A3003 RMK A01 T00000-32  RH  079%=      5-min Rain = 0
KBR1 161246Z 22005KT 00/M03 A3003 RMK A01 T00011031  RH  079%=      5-min Rain = 0
KBR1 161247Z 23005KT 00/M03 A3003 RMK A01 T00011031  RH  079%=      5-min Rain = 0
KBR1 161248Z 23005KT 00/M03 A3003 RMK A01 T00021031  RH  079%=      5-min Rain = 0
KBR1 161249Z 23004KT 00/M03 A3003 RMK A01 T00011032  RH  078%=      5-min Rain = 0
KBR1 161250Z 23005KT 00/M03 A3003 RMK A01 T00011033  RH  078%=      5-min Rain = 0
KBR1 161251Z 23005KT 00/03 A3003 RMK A01 T00-00-33  RH  079%=      5-min Rain = 0
KBR1 161252Z 24005KT 00/03 A3003 RMK A01 T00000-32  RH  079%=      5-min Rain = 0
KBR1 161253Z 24005KT 00/M03 A3003 RMK A01 T00011031  RH  079%=      5-min Rain = 0
KBR1 161254Z 24005KT 00/M03 A3003 RMK A01 T00021030  RH  079%=      5-min Rain = 0
KBR1 161255Z 24004KT 00/M03 A3003 RMK A01 T00021030  RH  079%=      5-min Rain = 0
KBR1 161256Z 24004KT 00/M03 A3003 RMK A01 T00031030  RH  079%=      5-min Rain = 0
KBR1 161257Z 24004KT 00/M03 A3003 RMK A01 T00031030  RH  078%=      5-min Rain = 0
KBR1 161258Z 23005KT 00/M03 A3003 RMK A01 T00031031  RH  078%=      5-min Rain = 0
KBR1 161259Z 23005KT 00/M03 A3003 RMK A01 T00031031  RH  078%=      5-min Rain = 0
KBR1 161300Z 23005KT 00/M03 A3003 RMK A01 T00021031  RH  078%=      5-min Rain = 0
KBR1 161301Z 24004KT 00/M03 A3003 RMK A01 T00021031  RH  078%=      5-min Rain = 0
KBR1 161302Z 23004KT 00/M03 A3003 RMK A01 T00011032  RH  078%=      5-min Rain = 0
KBR1 161303Z 23004KT 00/M03 A3003 RMK A01 T00011032  RH  078%=      5-min Rain = 0
KBR1 161304Z 23005KT 00/M03 A3003 RMK A01 T00011032  RH  079%=      5-min Rain = 0
KBR1 161305Z 23005KT 00/M03 A3003 RMK A01 T00011032  RH  079%=      5-min Rain = 0
KBR1 161306Z 23005KT 00/03 A3003 RMK A01 T00-00-33  RH  079%=      5-min Rain = 0
KBR1 161307Z 23005KT M00/M03 A3003 RMK A01 T10011034  RH  079%=      5-min Rain = 0
KBR1 161308Z 23005KT M00/M03 A3003 RMK A01 T10021034  RH  079%=      5-min Rain = 0
KBR1 161309Z 23005KT M00/M03 A3003 RMK A01 T10021034  RH  079%=      5-min Rain = 0
KBR1 161310Z 23005KT M00/M03 A3003 RMK A01 T10021034  RH  079%=      5-min Rain = 0
KBR1 161311Z 23005KT M00/M04 A3003 RMK A01 T10031035  RH  079%=      5-min Rain = 0
KBR1 161312Z 22005KT M00/M04 A3003 RMK A01 T10041035  RH  080%=      5-min Rain = 0
KBR1 161313Z 22006KT M00/M03 A3003 RMK A01 T10041034  RH  080%=      5-min Rain = 0
KBR1 161314Z 22006KT M00/M03 A3003 RMK A01 T10041034  RH  080%=      5-min Rain = 0
KBR1 161315Z 22006KT M00/M03 A3003 RMK A01 T10041034  RH  080%=      5-min Rain = 0
KBR1 161316Z 22006KT M00/M04 A3003 RMK A01 T10041035  RH  080%=      5-min Rain = 0
KBR1 161317Z 22006KT M01/M04 A3003 RMK A01 T10061036  RH  080%=      5-min Rain = 0
KBR1 161318Z 22006KT M01/M04 A3003 RMK A01 T10061036  RH  080%=      5-min Rain = 0
KBR1 161319Z 22006KT M01/M04 A3003 RMK A01 T10061036  RH  081%=      5-min Rain = 0
KBR1 161320Z 22006KT M01/M04 A3003 RMK A01 T10061035  RH  081%=      5-min Rain = 0
KBR1 161321Z 22006KT M01/M03 A3003 RMK A01 T10061034  RH  081%=      5-min Rain = 0
KBR1 161322Z 22006KT M01/M03 A3003 RMK A01 T10051034  RH  081%=      5-min Rain = 0
KBR1 161323Z 22007KT M01/M03 A3003 RMK A01 T10051034  RH  081%=      5-min Rain = 0
KBR1 161324Z 21007KT M00/M03 A3003 RMK A01 T10041033  RH  081%=      5-min Rain = 0
KBR1 161325Z 21007KT M00/M03 A3003 RMK A01 T10031031  RH  081%=      5-min Rain = 0
KBR1 161326Z 21008KT M00/M03 A3003 RMK A01 T10011030  RH  081%=      5-min Rain = 0
KBR1 161327Z 22008KT 00/03 A3003 RMK A01 T00000-30  RH  080%=      5-min Rain = 0
KBR1 161328Z 22008KT 00/M03 A3003 RMK A01 T00011030  RH  080%=      5-min Rain = 0
KBR1 161329Z 22007KT 00/M03 A3003 RMK A01 T00021030  RH  079%=      5-min Rain = 0
KBR1 161330Z 22007KT 00/M03 A3003 RMK A01 T00031029  RH  079%=      5-min Rain = 0
KBR1 161331Z 22007KT 00/M03 A3003 RMK A01 T00021030  RH  079%=      5-min Rain = 0
KBR1 161332Z 22007KT 00/M03 A3003 RMK A01 T00021030  RH  079%=      5-min Rain = 0
KBR1 161333Z 22007KT 00/M03 A3003 RMK A01 T00021030  RH  079%=      5-min Rain = 0
KBR1 161334Z 21007KT 00/M03 A3003 RMK A01 T00021029  RH  079%=      5-min Rain = 0
KBR1 161335Z 22008KT 00/M03 A3003 RMK A01 T00031028  RH  080%=      5-min Rain = 0
KBR1 161336Z 22008KT 00/M03 A3003 RMK A01 T00041027  RH  080%=      5-min Rain = 0
KBR1 161337Z 22008KT 01/M03 A3003 RMK A01 T00061026  RH  080%=      5-min Rain = 0
KBR1 161338Z 22008KT 01/M03 A3003 RMK A01 T00071025  RH  079%=      5-min Rain = 0
KBR1 161339Z 22008KT 01/M03 A3003 RMK A01 T00071025  RH  079%=      5-min Rain = 0
KBR1 161340Z 22007KT 01/M03 A3003 RMK A01 T00081025  RH  079%=      5-min Rain = 0
KBR1 161341Z 22007KT 01/M02 A3003 RMK A01 T00091024  RH  079%=      5-min Rain = 0
KBR1 161342Z 22007KT 01/M03 A3003 RMK A01 T00091025  RH  078%=      5-min Rain = 0
KBR1 161343Z 22007KT 01/M02 A3003 RMK A01 T00091024  RH  079%=      5-min Rain = 0
KBR1 161344Z 22007KT 01/M02 A3003 RMK A01 T00091024  RH  079%=      5-min Rain = 0
KBR1 161345Z 22007KT 01/M02 A3003 RMK A01 T00101023  RH  079%=      5-min Rain = 0
KBR1 161346Z 22007KT 01/M02 A3003 RMK A01 T00101023  RH  078%=      5-min Rain = 0
KBR1 161347Z 22008KT 01/M02 A3003 RMK A01 T00111023  RH  078%=      5-min Rain = 0
KBR1 161348Z 22008KT 01/M02 A3003 RMK A01 T00111023  RH  078%=      5-min Rain = 0
KBR1 161349Z 22008KT 01/M02 A3003 RMK A01 T00111023  RH  078%=      5-min Rain = 0
KBR1 161350Z 22007KT 01/M02 A3003 RMK A01 T00111023  RH  078%=      5-min Rain = 0
KBR1 161351Z 22008KT 01/M02 A3003 RMK A01 T00111023  RH  078%=      5-min Rain = 0
KBR1 161352Z 22007KT 01/M02 A3002 RMK A01 T00111023  RH  078%=      5-min Rain = 0
KBR1 161353Z 22007KT 01/M02 A3002 RMK A01 T00111023  RH  078%=      5-min Rain = 0
KBR1 161354Z 22007KT 01/M02 A3003 RMK A01 T00111023  RH  078%=      5-min Rain = 0
KBR1 161355Z 22007KT 01/M02 A3003 RMK A01 T00111023  RH  078%=      5-min Rain = 0
KBR1 161356Z 23007KT 01/M02 A3003 RMK A01 T00111023  RH  078%=      5-min Rain = 0
KBR1 161357Z 23007KT 01/M02 A3003 RMK A01 T00121022  RH  078%=      5-min Rain = 0
KBR1 161358Z 23008KT 01/M02 A3003 RMK A01 T00131022  RH  078%=      5-min Rain = 0
KBR1 161359Z 23007KT 01/M02 A3003 RMK A01 T00131022  RH  077%=      5-min Rain = 0
KBR1 161400Z 23007KT 01/M02 A3003 RMK A01 T00131022  RH  077%=      5-min Rain = 0
KBR1 161401Z 23007KT 01/M02 A3003 RMK A01 T00131023  RH  077%=      5-min Rain = 0
KBR1 161402Z 23007KT 01/M02 A3003 RMK A01 T00141023  RH  077%=      5-min Rain = 0
KBR1 161403Z 23007KT 01/M02 A3003 RMK A01 T00141023  RH  077%=      5-min Rain = 0
KBR1 161404Z 23007KT 01/M02 A3004 RMK A01 T00141023  RH  077%=      5-min Rain = 0
KBR1 161405Z 23007KT 01/M02 A3004 RMK A01 T00141023  RH  077%=      5-min Rain = 0
KBR1 161406Z 23006KT 01/M02 A3004 RMK A01 T00141023  RH  076%=      5-min Rain = 0
KBR1 161407Z 22006KT 01/M02 A3004 RMK A01 T00141023  RH  076%=      5-min Rain = 0
KBR1 161408Z 23006KT 01/M02 A3004 RMK A01 T00141023  RH  077%=      5-min Rain = 0
KBR1 161409Z 23006KT 01/M02 A3004 RMK A01 T00141023  RH  077%=      5-min Rain = 0
KBR1 161410Z 23005KT 02/M02 A3004 RMK A01 T00151022  RH  077%=      5-min Rain = 0
KBR1 161411Z 23004KT 02/M02 A3004 RMK A01 T00151021  RH  077%=      5-min Rain = 0
KBR1 161412Z 23005KT 02/M02 A3004 RMK A01 T00161021  RH  076%=      5-min Rain = 0
KBR1 161413Z 23005KT 02/M02 A3004 RMK A01 T00171020  RH  076%=      5-min Rain = 0
KBR1 161414Z 23004KT 02/M02 A3004 RMK A01 T00181020  RH  076%=      5-min Rain = 0
KBR1 161415Z 24004KT 02/M02 A3004 RMK A01 T00191019  RH  076%=      5-min Rain = 0
KBR1 161416Z 25004KT 02/M02 A3004 RMK A01 T00201018  RH  076%=      5-min Rain = 0
KBR1 161417Z 27004KT 02/M02 A3004 RMK A01 T00221016  RH  076%=      5-min Rain = 0
KBR1 161418Z 27004KT 02/M01 A3004 RMK A01 T00241014  RH  076%=      5-min Rain = 0
KBR1 161419Z 26005KT 03/M01 A3004 RMK A01 T00271013  RH  075%=      5-min Rain = 0
KBR1 161420Z 26004KT 03/M01 A3004 RMK A01 T00291013  RH  074%=      5-min Rain = 0
KBR1 161421Z 25005KT 03/M01 A3004 RMK A01 T00301012  RH  073%=      5-min Rain = 0
KBR1 161422Z 25006KT 03/M01 A3004 RMK A01 T00321012  RH  073%=      5-min Rain = 0
KBR1 161423Z 24006KT 03/M01 A3004 RMK A01 T00331013  RH  072%=      5-min Rain = 0
KBR1 161424Z 24006KT 03/M01 A3004 RMK A01 T00341013  RH  071%=      5-min Rain = 0
KBR1 161425Z 23006KT 04/M01 A3004 RMK A01 T00351013  RH  071%=      5-min Rain = 0
KBR1 161426Z 23006KT 04/M01 A3004 RMK A01 T00361013  RH  070%=      5-min Rain = 0
KBR1 161427Z 23006KT 04/M01 A3004 RMK A01 T00361014  RH  070%=      5-min Rain = 0
KBR1 161428Z 23006KT 04/M01 A3004 RMK A01 T00361014  RH  069%=      5-min Rain = 0
KBR1 161429Z 23006KT 04/M02 A3004 RMK A01 T00371015  RH  069%=      5-min Rain = 0
KBR1 161430Z 23006KT 04/M02 A3004 RMK A01 T00371015  RH  069%=      5-min Rain = 0
KBR1 161431Z 23007KT 04/M02 A3004 RMK A01 T00381016  RH  068%=      5-min Rain = 0
KBR1 161432Z 23008KT 04/M02 A3004 RMK A01 T00391016  RH  068%=      5-min Rain = 0
KBR1 161433Z 23008KT 04/M02 A3003 RMK A01 T00391016  RH  067%=      5-min Rain = 0
KBR1 161434Z 23008KT 04/M02 A3003 RMK A01 T00391016  RH  067%=      5-min Rain = 0
KBR1 161435Z 23008KT 04/M02 A3003 RMK A01 T00401016  RH  067%=      5-min Rain = 0
KBR1 161436Z 23008KT 04/M02 A3003 RMK A01 T00411015  RH  067%=      5-min Rain = 0
KBR1 161437Z 23008KT 04/M02 A3003 RMK A01 T00421016  RH  066%=      5-min Rain = 0
KBR1 161438Z 23009KT 04/M02 A3003 RMK A01 T00421015  RH  066%=      5-min Rain = 0
KBR1 161439Z 23009KT 04/M02 A3003 RMK A01 T00431016  RH  066%=      5-min Rain = 0
KBR1 161440Z 23008KT 04/M02 A3003 RMK A01 T00431017  RH  065%=      5-min Rain = 0
KBR1 161441Z 23010KT 04/M02 A3003 RMK A01 T00441016  RH  065%=      5-min Rain = 0
KBR1 161442Z 23010KT 04/M02 A3003 RMK A01 T00441017  RH  065%=      5-min Rain = 0
KBR1 161443Z 23010KT 05/M02 A3004 RMK A01 T00451017  RH  064%=      5-min Rain = 0
KBR1 161444Z 23010KT 05/M02 A3004 RMK A01 T00461017  RH  064%=      5-min Rain = 0
KBR1 161445Z 23010KT 05/M02 A3004 RMK A01 T00461017  RH  063%=      5-min Rain = 0
KBR1 161446Z 23010KT 05/M02 A3004 RMK A01 T00471017  RH  063%=      5-min Rain = 0
KBR1 161447Z 23010KT 05/M02 A3004 RMK A01 T00471018  RH  063%=      5-min Rain = 0
KBR1 161448Z 24010KT 05/M02 A3004 RMK A01 T00481018  RH  063%=      5-min Rain = 0
KBR1 161449Z 23008KT 05/M02 A3004 RMK A01 T00481018  RH  062%=      5-min Rain = 0
KBR1 161450Z 23009KT 05/M02 A3004 RMK A01 T00491018  RH  062%=      5-min Rain = 0
KBR1 161451Z 23008KT 05/M02 A3004 RMK A01 T00501017  RH  062%=      5-min Rain = 0
KBR1 161452Z 23010KT 05/M02 A3004 RMK A01 T00511017  RH  062%=      5-min Rain = 0
KBR1 161453Z 23009KT 05/M02 A3004 RMK A01 T00511018  RH  061%=      5-min Rain = 0
KBR1 161454Z 24009KT 05/M02 A3004 RMK A01 T00521017  RH  061%=      5-min Rain = 0
KBR1 161455Z 24010KT 05/M02 A3004 RMK A01 T00531017  RH  061%=      5-min Rain = 0
KBR1 161456Z 23009KT 05/M02 A3004 RMK A01 T00531018  RH  060%=      5-min Rain = 0
KBR1 161457Z 23008KT 05/M02 A3003 RMK A01 T00541017  RH  060%=      5-min Rain = 0
KBR1 161458Z 23008KT 06/M02 A3003 RMK A01 T00551016  RH  060%=      5-min Rain = 0
KBR1 161459Z 23010KT 06/M02 A3003 RMK A01 T00571016  RH  059%=      5-min Rain = 0
KBR1 161500Z 23009KT 06/M02 A3003 RMK A01 T00571017  RH  059%=      5-min Rain = 0
KBR1 161501Z 23009KT 06/M02 A3003 RMK A01 T00571017  RH  059%=      5-min Rain = 0
KBR1 161502Z 23009KT 06/M02 A3003 RMK A01 T00571017  RH  059%=      5-min Rain = 0
KBR1 161503Z 24009KT 06/M02 A3003 RMK A01 T00591017  RH  058%=      5-min Rain = 0
KBR1 161504Z 24008KT 06/M02 A3004 RMK A01 T00601016  RH  058%=      5-min Rain = 0
KBR1 161505Z 23008KT 06/M02 A3004 RMK A01 T00621015  RH  058%=      5-min Rain = 0
KBR1 161506Z 23009KT 06/M02 A3004 RMK A01 T00631016  RH  057%=      5-min Rain = 0
KBR1 161507Z 24010KT 06/M02 A3004 RMK A01 T00641016  RH  057%=      5-min Rain = 0
KBR1 161508Z 24009KT 06/M02 A3004 RMK A01 T00641016  RH  056%=      5-min Rain = 0
KBR1 161509Z 23009KT 07/M02 A3004 RMK A01 T00661015  RH  056%=      5-min Rain = 0
KBR1 161510Z 24011KT 07/M02 A3004 RMK A01 T00681015  RH  056%=      5-min Rain = 0
KBR1 161511Z 24010KT 07/M02 A3004 RMK A01 T00681016  RH  055%=      5-min Rain = 0
KBR1 161512Z 24011KT 07/M02 A3004 RMK A01 T00681016  RH  055%=      5-min Rain = 0
KBR1 161513Z 24010KT 07/M02 A3004 RMK A01 T00691017  RH  054%=      5-min Rain = 0
KBR1 161514Z 24012KT 07/M02 A3004 RMK A01 T00701015  RH  054%=      5-min Rain = 0
KBR1 161515Z 24011KT 07/M02 A3004 RMK A01 T00721016  RH  054%=      5-min Rain = 0
KBR1 161516Z 23010KT 07/M02 A3003 RMK A01 T00721016  RH  054%=      5-min Rain = 0
KBR1 161517Z 23011KT 07/M02 A3003 RMK A01 T00741015  RH  053%=      5-min Rain = 0
KBR1 161518Z 23011KT 07/M02 A3003 RMK A01 T00741017  RH  053%=      5-min Rain = 0
KBR1 161519Z 23010KT 08/M02 A3003 RMK A01 T00751016  RH  053%=      5-min Rain = 0
KBR1 161520Z 23011KT 08/M02 A3003 RMK A01 T00761015  RH  053%=      5-min Rain = 0
KBR1 161521Z 23011KT 08/M02 A3003 RMK A01 T00761016  RH  052%=      5-min Rain = 0
KBR1 161522Z 23011KT 08/M02 A3003 RMK A01 T00761016  RH  052%=      5-min Rain = 0
KBR1 161523Z 22011KT 08/M02 A3003 RMK A01 T00771016  RH  052%=      5-min Rain = 0
KBR1 161524Z 23012KT 08/M02 A3003 RMK A01 T00761017  RH  052%=      5-min Rain = 0
KBR1 161525Z 23010KT 08/M02 A3003 RMK A01 T00761017  RH  052%=      5-min Rain = 0
KBR1 161526Z 23010KT 08/M02 A3003 RMK A01 T00761017  RH  052%=      5-min Rain = 0
KBR1 161527Z 23010KT 08/M02 A3003 RMK A01 T00771017  RH  051%=      5-min Rain = 0
KBR1 161528Z 23010KT 08/M02 A3003 RMK A01 T00781017  RH  051%=      5-min Rain = 0
KBR1 161529Z 23009KT 08/M02 A3003 RMK A01 T00791017  RH  051%=      5-min Rain = 0
KBR1 161530Z 23009KT 08/M02 A3003 RMK A01 T00811016  RH  050%=      5-min Rain = 0
KBR1 161531Z 23009KT 08/M02 A3003 RMK A01 T00831016  RH  050%=      5-min Rain = 0
KBR1 161532Z 24009KT 08/M02 A3003 RMK A01 T00841016  RH  050%=      5-min Rain = 0
KBR1 161533Z 23009KT 09/M02 A3003 RMK A01 T00851016  RH  049%=      5-min Rain = 0
KBR1 161534Z 23010KT 09/M02 A3003 RMK A01 T00861017  RH  048%=      5-min Rain = 0
KBR1 161535Z 23011KT 09/M02 A3003 RMK A01 T00861018  RH  048%=      5-min Rain = 0
KBR1 161536Z 23010KT 09/M02 A3003 RMK A01 T00851018  RH  048%=      5-min Rain = 0
KBR1 161537Z 23009KT 09/M02 A3003 RMK A01 T00861017  RH  048%=      5-min Rain = 0
KBR1 161538Z 24010KT 09/M02 A3003 RMK A01 T00861017  RH  048%=      5-min Rain = 0
KBR1 161539Z 24009KT 09/M02 A3003 RMK A01 T00871018  RH  048%=      5-min Rain = 0
KBR1 161540Z 25009KT 09/M02 A3003 RMK A01 T00881018  RH  047%=      5-min Rain = 0
KBR1 161541Z 24011KT 09/M02 A3003 RMK A01 T00901019  RH  047%=      5-min Rain = 0
KBR1 161542Z 24010KT 09/M02 A3003 RMK A01 T00901020  RH  046%=      5-min Rain = 0
KBR1 161543Z 24010KT 09/M02 A3003 RMK A01 T00901020  RH  046%=      5-min Rain = 0
KBR1 161544Z 24011KT 09/M02 A3003 RMK A01 T00901019  RH  046%=      5-min Rain = 0
KBR1 161545Z 24011KT 09/M02 A3003 RMK A01 T00911019  RH  046%=      5-min Rain = 0
KBR1 161546Z 23011KT 09/M02 A3002 RMK A01 T00931019  RH  046%=      5-min Rain = 0
KBR1 161547Z 24010KT 10/M02 A3003 RMK A01 T00951018  RH  045%=      5-min Rain = 0
KBR1 161548Z 23010KT 10/M02 A3003 RMK A01 T00961018  RH  045%=      5-min Rain = 0
KBR1 161549Z 23009KT 10/M02 A3003 RMK A01 T00991017  RH  044%=      5-min Rain = 0
KBR1 161550Z 25010KT 10/M02 A3003 RMK A01 T01021017  RH  043%=      5-min Rain = 0
KBR1 161551Z 24008KT 10/M02 A3003 RMK A01 T01031018  RH  043%=      5-min Rain = 0
KBR1 161552Z 24009KT 11/M02 A3003 RMK A01 T01051016  RH  043%=      5-min Rain = 0
KBR1 161553Z 23010KT 11/M02 A3003 RMK A01 T01081017  RH  042%=      5-min Rain = 0
KBR1 161554Z 24009KT 11/M02 A3003 RMK A01 T01061019  RH  042%=      5-min Rain = 0
KBR1 161555Z 23011KT 11/M02 A3003 RMK A01 T01051018  RH  042%=      5-min Rain = 0
KBR1 161556Z 23010KT 11/M02 A3003 RMK A01 T01061019  RH  042%=      5-min Rain = 0
KBR1 161557Z 23009KT 11/M02 A3003 RMK A01 T01051019  RH  042%=      5-min Rain = 0
KBR1 161558Z 24009KT 11/M02 A3003 RMK A01 T01071017  RH  042%=      5-min Rain = 0
KBR1 161559Z 24010KT 11/M02 A3003 RMK A01 T01081018  RH  041%=      5-min Rain = 0
KBR1 161600Z 24008KT 11/M02 A3003 RMK A01 T01081018  RH  041%=      5-min Rain = 0
KBR1 161601Z 23010KT 11/M02 A3003 RMK A01 T01101016  RH  041%=      5-min Rain = 0
KBR1 161602Z 23010KT 11/M02 A3003 RMK A01 T01111018  RH  041%=      5-min Rain = 0
KBR1 161603Z 24011KT 11/M02 A3003 RMK A01 T01111018  RH  040%=      5-min Rain = 0
KBR1 161604Z 24009KT 11/M02 A3003 RMK A01 T01111019  RH  040%=      5-min Rain = 0
KBR1 161605Z 23010KT 11/M02 A3002 RMK A01 T01131016  RH  040%=      5-min Rain = 0
KBR1 161606Z 23011KT 12/M02 A3002 RMK A01 T01151017  RH  040%=      5-min Rain = 0
KBR1 161607Z 23012KT 12/M02 A3002 RMK A01 T01161016  RH  040%=      5-min Rain = 0
KBR1 161608Z 23011KT 12/M02 A3002 RMK A01 T01171017  RH  039%=      5-min Rain = 0
KBR1 161609Z 23011KT 12/M02 A3002 RMK A01 T01171018  RH  039%=      5-min Rain = 0
KBR1 161610Z 23011KT 12/M02 A3002 RMK A01 T01181018  RH  039%=      5-min Rain = 0
KBR1 161611Z 25011KT 12/M02 A3003 RMK A01 T01171018  RH  039%=      5-min Rain = 0
KBR1 161612Z 24010KT 12/M02 A3003 RMK A01 T01161019  RH  039%=      5-min Rain = 0
KBR1 161613Z 23010KT 11/M02 A3003 RMK A01 T01131020  RH  040%=      5-min Rain = 0
KBR1 161614Z 23010KT 11/M02 A3003 RMK A01 T01131018  RH  040%=      5-min Rain = 0
KBR1 161615Z 23010KT 11/M02 A3003 RMK A01 T01141018  RH  040%=      5-min Rain = 0
KBR1 161616Z 24010KT 11/M02 A3003 RMK A01 T01141019  RH  040%=      5-min Rain = 0
KBR1 161617Z 24009KT 11/M02 A3003 RMK A01 T01141018  RH  040%=      5-min Rain = 0
KBR1 161618Z 23010KT 11/M02 A3003 RMK A01 T01141017  RH  040%=      5-min Rain = 0
KBR1 161619Z 23010KT 12/M02 A3003 RMK A01 T01151018  RH  040%=      5-min Rain = 0
KBR1 161620Z 23010KT 12/M02 A3003 RMK A01 T01151018  RH  040%=      5-min Rain = 0
KBR1 161621Z 22009KT 12/M02 A3003 RMK A01 T01151017  RH  040%=      5-min Rain = 0
KBR1 161622Z 22011KT 12/M02 A3003 RMK A01 T01161017  RH  040%=      5-min Rain = 0
KBR1 161623Z 22010KT 12/M02 A3003 RMK A01 T01161017  RH  040%=      5-min Rain = 0
KBR1 161624Z 23009KT 11/M02 A3003 RMK A01 T01141017  RH  040%=      5-min Rain = 0
KBR1 161625Z 24010KT 11/M02 A3003 RMK A01 T01141016  RH  040%=      5-min Rain = 0
KBR1 161626Z 23009KT 11/M02 A3003 RMK A01 T01141017  RH  040%=      5-min Rain = 0
KBR1 161627Z 23009KT 11/M02 A3003 RMK A01 T01141017  RH  040%=      5-min Rain = 0
KBR1 161628Z 22009KT 12/M02 A3003 RMK A01 T01151015  RH  040%=      5-min Rain = 0
KBR1 161629Z 22008KT 12/M02 A3003 RMK A01 T01161015  RH  040%=      5-min Rain = 0
KBR1 161630Z 22009KT 11/M02 A3003 RMK A01 T01141017  RH  040%=      5-min Rain = 0
KBR1 161631Z 22009KT 12/M02 A3003 RMK A01 T01151015  RH  040%=      5-min Rain = 0
KBR1 161632Z 22009KT 12/M01 A3003 RMK A01 T01161014  RH  040%=      5-min Rain = 0
KBR1 161633Z 22010KT 12/M02 A3003 RMK A01 T01171015  RH  040%=      5-min Rain = 0
KBR1 161634Z 22010KT 12/M02 A3003 RMK A01 T01161016  RH  040%=      5-min Rain = 0
KBR1 161635Z 22008KT 12/M02 A3003 RMK A01 T01161015  RH  040%=      5-min Rain = 0
KBR1 161636Z 23009KT 12/M01 A3003 RMK A01 T01181014  RH  040%=      5-min Rain = 0
KBR1 161637Z 23009KT 12/M02 A3003 RMK A01 T01201015  RH  039%=      5-min Rain = 0
KBR1 161638Z 23010KT 12/M02 A3003 RMK A01 T01211016  RH  039%=      5-min Rain = 0
KBR1 161639Z 24010KT 12/M02 A3003 RMK A01 T01221015  RH  038%=      5-min Rain = 0
KBR1 161640Z 24008KT 12/M02 A3003 RMK A01 T01241015  RH  038%=      5-min Rain = 0
KBR1 161641Z 23009KT 12/M02 A3003 RMK A01 T01231017  RH  038%=      5-min Rain = 0
KBR1 161642Z 23009KT 12/M02 A3003 RMK A01 T01221017  RH  038%=      5-min Rain = 0
KBR1 161643Z 24007KT 12/M02 A3003 RMK A01 T01221017  RH  038%=      5-min Rain = 0
KBR1 161644Z 23006KT 12/M02 A3003 RMK A01 T01221016  RH  038%=      5-min Rain = 0
KBR1 161645Z 24005KT 12/M02 A3003 RMK A01 T01241015  RH  038%=      5-min Rain = 0
KBR1 161646Z 23008KT 12/M02 A3003 RMK A01 T01241016  RH  038%=      5-min Rain = 0
KBR1 161647Z 22007KT 13/M02 A3003 RMK A01 T01251016  RH  037%=      5-min Rain = 0
KBR1 161648Z 22008KT 12/M02 A3003 RMK A01 T01241017  RH  038%=      5-min Rain = 0
KBR1 161649Z 23009KT 13/M02 A3003 RMK A01 T01251015  RH  038%=      5-min Rain = 0
KBR1 161650Z 23009KT 13/M02 A3003 RMK A01 T01271015  RH  037%=      5-min Rain = 0
KBR1 161651Z 24010KT 13/M02 A3002 RMK A01 T01291015  RH  037%=      5-min Rain = 0
KBR1 161652Z 22011KT 13/M02 A3002 RMK A01 T01301015  RH  037%=      5-min Rain = 0
KBR1 161653Z 22009KT 13/M02 A3002 RMK A01 T01321016  RH  036%=      5-min Rain = 0
KBR1 161654Z 23009KT 13/M02 A3002 RMK A01 T01341015  RH  036%=      5-min Rain = 0
KBR1 161655Z 23009KT 14/M02 A3002 RMK A01 T01361015  RH  035%=      5-min Rain = 0
KBR1 161656Z 23008KT 14/M01 A3002 RMK A01 T01381014  RH  035%=      5-min Rain = 0
KBR1 161657Z 24007KT 14/M02 A3002 RMK A01 T01391015  RH  034%=      5-min Rain = 0
KBR1 161658Z 23008KT 14/M02 A3002 RMK A01 T01391017  RH  034%=      5-min Rain = 0
KBR1 161659Z 24008KT 14/M02 A3002 RMK A01 T01381018  RH  034%=      5-min Rain = 0
KBR1 161700Z 24008KT 14/M02 A3002 RMK A01 T01381018  RH  034%=      5-min Rain = 0
KBR1 161701Z 23008KT 14/M02 A3002 RMK A01 T01391016  RH  034%=      5-min Rain = 0
KBR1 161702Z 23008KT 14/M02 A3002 RMK A01 T01401017  RH  034%=      5-min Rain = 0
KBR1 161703Z 23007KT 14/M02 A3002 RMK A01 T01411018  RH  033%=      5-min Rain = 0
KBR1 161704Z 22008KT 14/M02 A3002 RMK A01 T01421016  RH  034%=      5-min Rain = 0
KBR1 161705Z 22008KT 14/M02 A3002 RMK A01 T01431017  RH  033%=      5-min Rain = 0
KBR1 161706Z 24009KT 15/M02 A3002 RMK A01 T01451018  RH  033%=      5-min Rain = 0
KBR1 161707Z 23008KT 14/M02 A3002 RMK A01 T01441021  RH  032%=      5-min Rain = 0
KBR1 161708Z 22009KT 14/M02 A3002 RMK A01 T01431020  RH  033%=      5-min Rain = 0
KBR1 161709Z 22010KT 14/M02 A3002 RMK A01 T01441018  RH  033%=      5-min Rain = 0
KBR1 161710Z 22010KT 15/M02 A3002 RMK A01 T01461018  RH  032%=      5-min Rain = 0
KBR1 161711Z 23010KT 15/M02 A3002 RMK A01 T01471020  RH  032%=      5-min Rain = 0
KBR1 161712Z 23009KT 15/M02 A3001 RMK A01 T01461020  RH  032%=      5-min Rain = 0
KBR1 161713Z 24010KT 15/M02 A3001 RMK A01 T01461020  RH  032%=      5-min Rain = 0
KBR1 161714Z 24009KT 15/M02 A3001 RMK A01 T01461020  RH  032%=      5-min Rain = 0
KBR1 161715Z 23008KT 15/M02 A3001 RMK A01 T01471020  RH  032%=      5-min Rain = 0
KBR1 161716Z 22008KT 15/M02 A3001 RMK A01 T01471018  RH  032%=      5-min Rain = 0
KBR1 161717Z 23009KT 15/M02 A3001 RMK A01 T01481018  RH  032%=      5-min Rain = 0
KBR1 161718Z 22009KT 15/M02 A3001 RMK A01 T01491019  RH  031%=      5-min Rain = 0
KBR1 161719Z 22010KT 15/M02 A3001 RMK A01 T01491019  RH  032%=      5-min Rain = 0
KBR1 161720Z 23010KT 15/M02 A3001 RMK A01 T01491020  RH  031%=      5-min Rain = 0
KBR1 161721Z 23009KT 15/M02 A3001 RMK A01 T01501021  RH  031%=      5-min Rain = 0
KBR1 161722Z 23009KT 15/M02 A3001 RMK A01 T01501020  RH  031%=      5-min Rain = 0
KBR1 161723Z 24006KT 15/M02 A3001 RMK A01 T01491019  RH  031%=      5-min Rain = 0
KBR1 161724Z 23010KT 15/M02 A3001 RMK A01 T01501018  RH  031%=      5-min Rain = 0
KBR1 161725Z 23009KT 15/M02 A3001 RMK A01 T01501020  RH  031%=      5-min Rain = 0
KBR1 161726Z 23007KT 15/M02 A3001 RMK A01 T01491019  RH  031%=      5-min Rain = 0
KBR1 161727Z 22009KT 15/M02 A3001 RMK A01 T01491018  RH  032%=      5-min Rain = 0
KBR1 161728Z 21009KT 15/M02 A3001 RMK A01 T01511016  RH  032%=      5-min Rain = 0
KBR1 161729Z 21010KT 15/M02 A3001 RMK A01 T01531017  RH  031%=      5-min Rain = 0
KBR1 161730Z 23010KT 15/M02 A3001 RMK A01 T01541019  RH  031%=      5-min Rain = 0
KBR1 161731Z 23009KT 15/M02 A3001 RMK A01 T01541021  RH  030%=      5-min Rain = 0
KBR1 161732Z 22008KT 15/M02 A3001 RMK A01 T01541019  RH  031%=      5-min Rain = 0
KBR1 161733Z 22008KT 16/M02 A3001 RMK A01 T01561019  RH  030%=      5-min Rain = 0
KBR1 161734Z 21010KT 16/M02 A3001 RMK A01 T01561020  RH  030%=      5-min Rain = 0
KBR1 161735Z 21008KT 16/M02 A3001 RMK A01 T01561020  RH  030%=      5-min Rain = 0
KBR1 161736Z 23009KT 16/M02 A3001 RMK A01 T01591018  RH  030%=      5-min Rain = 0
KBR1 161737Z 24008KT 16/M02 A3001 RMK A01 T01601021  RH  029%=      5-min Rain = 0
KBR1 161738Z 21010KT 16/M02 A3001 RMK A01 T01601019  RH  029%=      5-min Rain = 0
KBR1 161739Z 21009KT 16/M02 A3001 RMK A01 T01601019  RH  029%=      5-min Rain = 0
KBR1 161740Z 21010KT 16/M02 A3001 RMK A01 T01601020  RH  029%=      5-min Rain = 0
KBR1 161741Z 21009KT 16/M02 A30 RMK A01 T01591022  RH  029%=      5-min Rain = 0
KBR1 161742Z 23010KT 16/M02 A30 RMK A01 T01601022  RH  029%=      5-min Rain = 0
KBR1 161743Z 22009KT 16/M02 A30 RMK A01 T01611023  RH  028%=      5-min Rain = 0
KBR1 161744Z 22008KT 16/M02 A30 RMK A01 T01611024  RH  028%=      5-min Rain = 0
KBR1 161745Z 23009KT 16/M02 A30 RMK A01 T01611023  RH  028%=      5-min Rain = 0
KBR1 161746Z 22008KT 16/M02 A30 RMK A01 T01611023  RH  028%=      5-min Rain = 0
KBR1 161747Z 22008KT 16/M02 A30 RMK A01 T01611022  RH  028%=      5-min Rain = 0
KBR1 161748Z 22009KT 16/M02 A30 RMK A01 T01641021  RH  028%=      5-min Rain = 0
KBR1 161749Z 22007KT 17/M02 A30 RMK A01 T01661021  RH  028%=      5-min Rain = 0
KBR1 161750Z 21007KT 17/M02 A30 RMK A01 T01671021  RH  028%=      5-min Rain = 0
KBR1 161751Z 20007KT 17/M02 A30 RMK A01 T01661020  RH  028%=      5-min Rain = 0
KBR1 161752Z 21009KT 17/M02 A30 RMK A01 T01671020  RH  028%=      5-min Rain = 0
KBR1 161753Z 21008KT 17/M02 A30 RMK A01 T01681022  RH  027%=      5-min Rain = 0
KBR1 161754Z 21007KT 17/M02 A30 RMK A01 T01691022  RH  027%=      5-min Rain = 0
KBR1 161755Z 20008KT 17/M02 A30 RMK A01 T01711020  RH  027%=      5-min Rain = 0
KBR1 161756Z 21009KT 17/M02 A30 RMK A01 T01721023  RH  026%=      5-min Rain = 0
KBR1 161757Z 21010KT 17/M02 A30 RMK A01 T01701024  RH  026%=      5-min Rain = 0
KBR1 161758Z 20008KT 17/M02 A30 RMK A01 T01681024  RH  027%=      5-min Rain = 0
KBR1 161759Z 20008KT 17/M02 A30 RMK A01 T01701022  RH  027%=      5-min Rain = 0
KBR1 161800Z 22007KT 17/M02 A30 RMK A01 T01711023  RH  026%=      5-min Rain = 0
KBR1 161801Z 24007KT 17/M02 A30 RMK A01 T01721021  RH  027%=      5-min Rain = 0
KBR1 161802Z 23008KT 17/M02 A30 RMK A01 T01741023  RH  026%=      5-min Rain = 0
KBR1 161803Z 22008KT 18/M02 A2999 RMK A01 T01751022  RH  026%=      5-min Rain = 0
KBR1 161804Z 22007KT 18/M02 A2999 RMK A01 T01771023  RH  025%=      5-min Rain = 0
KBR1 161805Z 21007KT 18/M02 A2999 RMK A01 T01771024  RH  025%=      5-min Rain = 0
KBR1 161806Z 23007KT 18/M03 A2999 RMK A01 T01771026  RH  025%=      5-min Rain = 0
KBR1 161807Z 22007KT 18/M03 A2999 RMK A01 T01771025  RH  025%=      5-min Rain = 0
KBR1 161808Z 23008KT 18/M02 A2999 RMK A01 T01791023  RH  025%=      5-min Rain = 0
KBR1 161809Z 22008KT 18/M03 A2999 RMK A01 T01791025  RH  025%=      5-min Rain = 0
KBR1 161810Z 22006KT 18/M03 A2999 RMK A01 T01791026  RH  025%=      5-min Rain = 0
KBR1 161811Z 21007KT 18/M02 A2999 RMK A01 T01811022  RH  025%=      5-min Rain = 0
KBR1 161812Z 22009KT 18/M02 A2999 RMK A01 T01841021  RH  025%=      5-min Rain = 0
KBR1 161813Z 20010KT 19/M02 A2999 RMK A01 T01851022  RH  024%=      5-min Rain = 0
KBR1 161814Z 20007KT 18/M02 A2999 RMK A01 T01841024  RH  024%=      5-min Rain = 0
KBR1 161815Z 21008KT 18/M02 A2999 RMK A01 T01821022  RH  025%=      5-min Rain = 0
KBR1 161816Z 21008KT 18/M02 A2999 RMK A01 T01831022  RH  025%=      5-min Rain = 0
KBR1 161817Z 21007KT 18/M03 A2999 RMK A01 T01821025  RH  024%=      5-min Rain = 0
KBR1 161818Z 23008KT 18/M02 A2998 RMK A01 T01821023  RH  025%=      5-min Rain = 0
KBR1 161819Z 22008KT 18/M02 A2998 RMK A01 T01831023  RH  025%=      5-min Rain = 0
KBR1 161820Z 22008KT 19/M02 A2998 RMK A01 T01851022  RH  024%=      5-min Rain = 0
KBR1 161821Z 21008KT 19/M02 A2998 RMK A01 T01851024  RH  024%=      5-min Rain = 0
KBR1 161822Z 21008KT 19/M02 A2998 RMK A01 T01851023  RH  024%=      5-min Rain = 0
KBR1 161823Z 22008KT 19/M02 A2998 RMK A01 T01861022  RH  024%=      5-min Rain = 0
KBR1 161824Z 22008KT 19/M02 A2998 RMK A01 T01871022  RH  024%=      5-min Rain = 0
KBR1 161825Z 23008KT 19/M02 A2998 RMK A01 T01891022  RH  024%=      5-min Rain = 0
KBR1 161826Z 22008KT 19/M02 A2998 RMK A01 T01901024  RH  023%=      5-min Rain = 0
KBR1 161827Z 22008KT 19/M03 A2998 RMK A01 T01891025  RH  023%=      5-min Rain = 0
KBR1 161828Z 21008KT 19/M02 A2998 RMK A01 T01901023  RH  024%=      5-min Rain = 0
KBR1 161829Z 21009KT 19/M02 A2998 RMK A01 T01911022  RH  023%=      5-min Rain = 0
KBR1 161830Z 21009KT 19/M02 A2998 RMK A01 T01911022  RH  023%=      5-min Rain = 0
KBR1 161831Z 22009KT 19/M02 A2998 RMK A01 T01921023  RH  023%=      5-min Rain = 0
KBR1 161832Z 21008KT 19/M02 A2998 RMK A01 T01911023  RH  023%=      5-min Rain = 0
KBR1 161833Z 19009KT 19/M02 A2998 RMK A01 T01931020  RH  024%=      5-min Rain = 0
KBR1 161834Z 20010KT 19/M02 A2998 RMK A01 T01941020  RH  023%=      5-min Rain = 0
KBR1 161835Z 21010KT 20/M02 A2997 RMK A01 T01951021  RH  023%=      5-min Rain = 0
KBR1 161836Z 20010KT 20/M02 A2997 RMK A01 T01951022  RH  023%=      5-min Rain = 0
KBR1 161837Z 21008KT 19/M02 A2997 RMK A01 T01941022  RH  023%=      5-min Rain = 0
KBR1 161838Z 22009KT 20/M02 A2997 RMK A01 T01951020  RH  023%=      5-min Rain = 0
KBR1 161839Z 21008KT 20/M02 A2997 RMK A01 T01971020  RH  023%=      5-min Rain = 0
KBR1 161840Z 21009KT 20/M02 A2997 RMK A01 T01981020  RH  023%=      5-min Rain = 0
KBR1 161841Z 21008KT 20/M02 A2997 RMK A01 T01991021  RH  023%=      5-min Rain = 0
KBR1 161842Z 20009KT 20/M02 A2997 RMK A01 T01971023  RH  023%=      5-min Rain = 0
KBR1 161843Z 20010KT 20/M02 A2997 RMK A01 T01971022  RH  023%=      5-min Rain = 0
KBR1 161844Z 22009KT 20/M02 A2997 RMK A01 T01971021  RH  023%=      5-min Rain = 0
KBR1 161845Z 21006KT 20/M02 A2997 RMK A01 T01991022  RH  022%=      5-min Rain = 0
KBR1 161846Z 22008KT 20/M02 A2997 RMK A01 T02001020  RH  023%=      5-min Rain = 0
KBR1 161847Z 21007KT 20/M02 A2997 RMK A01 T02021021  RH  022%=      5-min Rain = 0
KBR1 161848Z 22005KT 20/M03 A2997 RMK A01 T02001025  RH  022%=      5-min Rain = 0
KBR1 161849Z 20007KT 20/M02 A2997 RMK A01 T01991024  RH  022%=      5-min Rain = 0
KBR1 161850Z 22008KT 20/M02 A2997 RMK A01 T01991024  RH  022%=      5-min Rain = 0
KBR1 161851Z 23008KT 20/M02 A2997 RMK A01 T01991024  RH  022%=      5-min Rain = 0
KBR1 161852Z 23006KT 20/M03 A2997 RMK A01 T01981026  RH  022%=      5-min Rain = 0
KBR1 161853Z 23006KT 20/M03 A2997 RMK A01 T01981025  RH  022%=      5-min Rain = 0
KBR1 161854Z 22005KT 20/M03 A2997 RMK A01 T01971026  RH  022%=      5-min Rain = 0
KBR1 161855Z 24006KT 20/M03 A2997 RMK A01 T01961026  RH  022%=      5-min Rain = 0
KBR1 161856Z 24006KT 20/M03 A2996 RMK A01 T01961026  RH  022%=      5-min Rain = 0
KBR1 161857Z 23006KT 20/M03 A2996 RMK A01 T01961026  RH  022%=      5-min Rain = 0
KBR1 161858Z 24007KT 20/M03 A2996 RMK A01 T01981025  RH  022%=      5-min Rain = 0
KBR1 161859Z 23007KT 20/M03 A2996 RMK A01 T01981025  RH  022%=      5-min Rain = 0
KBR1 161900Z 21008KT 20/M03 A2996 RMK A01 T01991026  RH  022%=      5-min Rain = 0
KBR1 161901Z 21007KT 20/M03 A2996 RMK A01 T01981027  RH  022%=      5-min Rain = 0
KBR1 161902Z 21006KT 20/M03 A2996 RMK A01 T01991026  RH  022%=      5-min Rain = 0
KBR1 161903Z 22005KT 20/M03 A2996 RMK A01 T02021025  RH  022%=      5-min Rain = 0
KBR1 161904Z 23006KT 20/M03 A2996 RMK A01 T02041025  RH  021%=      5-min Rain = 0
KBR1 161905Z 23006KT 20/M03 A2996 RMK A01 T02041028  RH  021%=      5-min Rain = 0
KBR1 161906Z 23006KT 20/M03 A2996 RMK A01 T02021028  RH  021%=      5-min Rain = 0
KBR1 161907Z 23008KT 20/M03 A2996 RMK A01 T02011027  RH  021%=      5-min Rain = 0
KBR1 161908Z 24006KT 20/M03 A2995 RMK A01 T02011026  RH  021%=      5-min Rain = 0
KBR1 161909Z 22007KT 20/M03 A2995 RMK A01 T02011028  RH  021%=      5-min Rain = 0
KBR1 161910Z 22007KT 20/M03 A2995 RMK A01 T02001028  RH  021%=      5-min Rain = 0
KBR1 161911Z 22007KT 20/M03 A2995 RMK A01 T02001028  RH  021%=      5-min Rain = 0
KBR1 161912Z 23008KT 20/M03 A2995 RMK A01 T02011027  RH  021%=      5-min Rain = 0
KBR1 161913Z 21008KT 20/M03 A2995 RMK A01 T02001029  RH  021%=      5-min Rain = 0
KBR1 161914Z 21006KT 20/M03 A2995 RMK A01 T02001028  RH  021%=      5-min Rain = 0
KBR1 161915Z 23006KT 20/M03 A2995 RMK A01 T02001028  RH  021%=      5-min Rain = 0
KBR1 161916Z 23007KT 20/M03 A2995 RMK A01 T02001027  RH  021%=      5-min Rain = 0
KBR1 161917Z 23006KT 20/M03 A2995 RMK A01 T02001029  RH  021%=      5-min Rain = 0
KBR1 161918Z 22006KT 20/M03 A2995 RMK A01 T01991029  RH  021%=      5-min Rain = 0
KBR1 161919Z 22006KT 20/M03 A2995 RMK A01 T01991030  RH  021%=      5-min Rain = 0
KBR1 161920Z 22005KT 20/M03 A2995 RMK A01 T01981030  RH  021%=      5-min Rain = 0
KBR1 161921Z 22006KT 20/M03 A2995 RMK A01 T01971030  RH  021%=      5-min Rain = 0
KBR1 161922Z 22005KT 20/M03 A2994 RMK A01 T01971030  RH  021%=      5-min Rain = 0
KBR1 161923Z 22005KT 20/M03 A2994 RMK A01 T01981029  RH  021%=      5-min Rain = 0
KBR1 161924Z 22005KT 20/M03 A2994 RMK A01 T01991029  RH  021%=      5-min Rain = 0
KBR1 161925Z 21005KT 20/M03 A2994 RMK A01 T01991030  RH  021%=      5-min Rain = 0
KBR1 161926Z 21005KT 20/M03 A2994 RMK A01 T01981031  RH  021%=      5-min Rain = 0
KBR1 161927Z 23005KT 20/M03 A2994 RMK A01 T01981029  RH  021%=      5-min Rain = 0
KBR1 161928Z 22006KT 20/M03 A2994 RMK A01 T02001029  RH  021%=      5-min Rain = 0
KBR1 161929Z 21007KT 20/M03 A2994 RMK A01 T02001029  RH  021%=      5-min Rain = 0
KBR1 161930Z 21006KT 20/M03 A2994 RMK A01 T01991030  RH  021%=      5-min Rain = 0
KBR1 161931Z 21005KT 20/M03 A2994 RMK A01 T01981031  RH  021%=      5-min Rain = 0
KBR1 161932Z 22006KT 20/M03 A2994 RMK A01 T01981031  RH  021%=      5-min Rain = 0
KBR1 161933Z 21006KT 20/M03 A2994 RMK A01 T01981031  RH  021%=      5-min Rain = 0
KBR1 161934Z 20005KT 20/M03 A2994 RMK A01 T01971031  RH  021%=      5-min Rain = 0
KBR1 161935Z 19005KT 20/M03 A2994 RMK A01 T01971031  RH  021%=      5-min Rain = 0
KBR1 161936Z 20005KT 20/M03 A2994 RMK A01 T01981032  RH  021%=      5-min Rain = 0
KBR1 161937Z 20005KT 20/M03 A2994 RMK A01 T01971032  RH  021%=      5-min Rain = 0
KBR1 161938Z 21007KT 20/M03 A2994 RMK A01 T01971031  RH  021%=      5-min Rain = 0
KBR1 161939Z 20006KT 20/M03 A2994 RMK A01 T01991030  RH  021%=      5-min Rain = 0
KBR1 161940Z 21005KT 20/M03 A2994 RMK A01 T01991030  RH  021%=      5-min Rain = 0
KBR1 161941Z 21005KT 20/M03 A2994 RMK A01 T02001030  RH  021%=      5-min Rain = 0
KBR1 161942Z 23006KT 20/M03 A2994 RMK A01 T02001031  RH  021%=      5-min Rain = 0
KBR1 161943Z 23006KT 20/M03 A2994 RMK A01 T01991032  RH  021%=      5-min Rain = 0
KBR1 161944Z 23005KT 20/M03 A2994 RMK A01 T01981032  RH  021%=      5-min Rain = 0
KBR1 161945Z 23004KT 20/M03 A2994 RMK A01 T01981032  RH  021%=      5-min Rain = 0
KBR1 161946Z 22005KT 20/M03 A2993 RMK A01 T01981032  RH  021%=      5-min Rain = 0
KBR1 161947Z 22005KT 20/M03 A2993 RMK A01 T01981032  RH  021%=      5-min Rain = 0
KBR1 161948Z 22006KT 20/M03 A2993 RMK A01 T01981033  RH  021%=      5-min Rain = 0
KBR1 161949Z 22006KT 20/M03 A2993 RMK A01 T01981033  RH  021%=      5-min Rain = 0
KBR1 161950Z 22006KT 20/M03 A2993 RMK A01 T01991032  RH  021%=      5-min Rain = 0
KBR1 161951Z 22006KT 20/M03 A2993 RMK A01 T01991031  RH  021%=      5-min Rain = 0
KBR1 161952Z 21006KT 20/M03 A2993 RMK A01 T02001032  RH  021%=      5-min Rain = 0
KBR1 161953Z 22005KT 20/M03 A2993 RMK A01 T02001033  RH  021%=      5-min Rain = 0
KBR1 161954Z 20005KT 20/M03 A2993 RMK A01 T01991033  RH  021%=      5-min Rain = 0
KBR1 161955Z 20005KT 20/M03 A2993 RMK A01 T01991033  RH  021%=      5-min Rain = 0
KBR1 161956Z 20005KT 20/M03 A2993 RMK A01 T01991034  RH  020%=      5-min Rain = 0
KBR1 161957Z 20005KT 20/M03 A2993 RMK A01 T02001033  RH  021%=      5-min Rain = 0
KBR1 161958Z 20007KT 20/M03 A2993 RMK A01 T02001032  RH  021%=      5-min Rain = 0
KBR1 161959Z 18007KT 20/M03 A2993 RMK A01 T02001032  RH  021%=      5-min Rain = 0
KBR1 162000Z 21006KT 20/M03 A2993 RMK A01 T02001030  RH  021%=      5-min Rain = 0
KBR1 162001Z 22006KT 20/M03 A2993 RMK A01 T02011031  RH  021%=      5-min Rain = 0
KBR1 162002Z 22006KT 20/M03 A2993 RMK A01 T02011030  RH  021%=      5-min Rain = 0
KBR1 162003Z 21007KT 20/M03 A2993 RMK A01 T02011030  RH  021%=      5-min Rain = 0
KBR1 162004Z 20008KT 20/M03 A2993 RMK A01 T02011030  RH  021%=      5-min Rain = 0
KBR1 162005Z 20007KT 20/M03 A2993 RMK A01 T02001030  RH  021%=      5-min Rain = 0
KBR1 162006Z 20006KT 20/M03 A2993 RMK A01 T02001031  RH  021%=      5-min Rain = 0
KBR1 162007Z 19006KT 20/M03 A2993 RMK A01 T01991031  RH  021%=      5-min Rain = 0
KBR1 162008Z 19006KT 20/M03 A2993 RMK A01 T01991031  RH  021%=      5-min Rain = 0
KBR1 162009Z 19005KT 20/M03 A2993 RMK A01 T01991031  RH  021%=      5-min Rain = 0
KBR1 162010Z 20006KT 20/M03 A2993 RMK A01 T01991031  RH  021%=      5-min Rain = 0
KBR1 162011Z 21006KT 20/M03 A2993 RMK A01 T02001031  RH  021%=      5-min Rain = 0
KBR1 162012Z 21005KT 20/M03 A2993 RMK A01 T02001031  RH  021%=      5-min Rain = 0
KBR1 162013Z 20004KT 20/M03 A2993 RMK A01 T02001031  RH  021%=      5-min Rain = 0
KBR1 162014Z 21003KT 20/M03 A2993 RMK A01 T01991031  RH  021%=      5-min Rain = 0
KBR1 162015Z 22004KT 20/M03 A2993 RMK A01 T02011028  RH  021%=      5-min Rain = 0
KBR1 162016Z 22006KT 20/M03 A2993 RMK A01 T02031030  RH  021%=      5-min Rain = 0
KBR1 162017Z 23006KT 20/M03 A2993 RMK A01 T02021031  RH  021%=      5-min Rain = 0
KBR1 162018Z 22005KT 20/M03 A2993 RMK A01 T02021031  RH  021%=      5-min Rain = 0
KBR1 162019Z 20004KT 20/M03 A2993 RMK A01 T02021032  RH  021%=      5-min Rain = 0
KBR1 162020Z 19006KT 20/M03 A2993 RMK A01 T02011032  RH  021%=      5-min Rain = 0
KBR1 162021Z 19005KT 20/M03 A2993 RMK A01 T02011032  RH  020%=      5-min Rain = 0
KBR1 162022Z 19004KT 20/M03 A2993 RMK A01 T02001033  RH  020%=      5-min Rain = 0
KBR1 162023Z 19004KT 20/M03 A2993 RMK A01 T02001032  RH  021%=      5-min Rain = 0
KBR1 162024Z 19005KT 20/M03 A2993 RMK A01 T02011030  RH  021%=      5-min Rain = 0
KBR1 162025Z 21006KT 20/M03 A2993 RMK A01 T02021031  RH  021%=      5-min Rain = 0
KBR1 162026Z 21006KT 20/M03 A2993 RMK A01 T02031031  RH  020%=      5-min Rain = 0
KBR1 162027Z 21005KT 20/M03 A2993 RMK A01 T02031031  RH  020%=      5-min Rain = 0
KBR1 162028Z 22005KT 20/M03 A2993 RMK A01 T02041032  RH  020%=      5-min Rain = 0
KBR1 162029Z 22005KT 20/M03 A2993 RMK A01 T02041032  RH  020%=      5-min Rain = 0
KBR1 162030Z 22005KT 20/M03 A2993 RMK A01 T02031032  RH  020%=      5-min Rain = 0
KBR1 162031Z 21006KT 20/M03 A2993 RMK A01 T02031030  RH  020%=      5-min Rain = 0
KBR1 162032Z 21007KT 20/M03 A2993 RMK A01 T02041030  RH  020%=      5-min Rain = 0
KBR1 162033Z 21006KT 20/M03 A2993 RMK A01 T02041031  RH  020%=      5-min Rain = 0
KBR1 162034Z 20005KT 20/M03 A2993 RMK A01 T02041032  RH  020%=      5-min Rain = 0
KBR1 162035Z 20006KT 20/M03 A2992 RMK A01 T02031032  RH  020%=      5-min Rain = 0
KBR1 162036Z 20005KT 20/M03 A2992 RMK A01 T02021031  RH  020%=      5-min Rain = 0
KBR1 162037Z 21007KT 20/M03 A2992 RMK A01 T02021031  RH  021%=      5-min Rain = 0
KBR1 162038Z 20005KT 20/M03 A2992 RMK A01 T02021031  RH  021%=      5-min Rain = 0
KBR1 162039Z 21006KT 20/M03 A2992 RMK A01 T02021032  RH  020%=      5-min Rain = 0
KBR1 162040Z 21006KT 20/M03 A2992 RMK A01 T02021032  RH  020%=      5-min Rain = 0
KBR1 162041Z 21005KT 20/M03 A2992 RMK A01 T02021032  RH  020%=      5-min Rain = 0
KBR1 162042Z 20006KT 20/M03 A2992 RMK A01 T02011033  RH  020%=      5-min Rain = 0
KBR1 162043Z 20005KT 20/M03 A2992 RMK A01 T02011032  RH  020%=      5-min Rain = 0
KBR1 162044Z 21006KT 20/M03 A2992 RMK A01 T02011032  RH  021%=      5-min Rain = 0
KBR1 162045Z 20005KT 20/M03 A2992 RMK A01 T02021031  RH  021%=      5-min Rain = 0
KBR1 162046Z 20006KT 20/M03 A2992 RMK A01 T02031031  RH  020%=      5-min Rain = 0
KBR1 162047Z 21006KT 20/M03 A2992 RMK A01 T02031032  RH  020%=      5-min Rain = 0
KBR1 162048Z 21005KT 20/M03 A2992 RMK A01 T02031031  RH  020%=      5-min Rain = 0
KBR1 162049Z 21005KT 20/M03 A2992 RMK A01 T02031033  RH  020%=      5-min Rain = 0
KBR1 162050Z 21004KT 20/M03 A2992 RMK A01 T02021033  RH  020%=      5-min Rain = 0
KBR1 162051Z 21004KT 20/M03 A2992 RMK A01 T02031031  RH  020%=      5-min Rain = 0
KBR1 162052Z 20006KT 20/M03 A2992 RMK A01 T02041032  RH  020%=      5-min Rain = 0
KBR1 162053Z 20006KT 20/M03 A2992 RMK A01 T02031034  RH  020%=      5-min Rain = 0
KBR1 162054Z 20006KT 20/M03 A2992 RMK A01 T02031034  RH  020%=      5-min Rain = 0
KBR1 162055Z 21005KT 20/M03 A2992 RMK A01 T02021033  RH  020%=      5-min Rain = 0
KBR1 162056Z 21006KT 20/M03 A2992 RMK A01 T02021033  RH  020%=      5-min Rain = 0
KBR1 162057Z 22005KT 20/M03 A2992 RMK A01 T02021033  RH  020%=      5-min Rain = 0
KBR1 162058Z 22005KT 20/M03 A2992 RMK A01 T02021033  RH  020%=      5-min Rain = 0
KBR1 162059Z 22005KT 20/M03 A2992 RMK A01 T02031032  RH  020%=      5-min Rain = 0
KBR1 162100Z 21006KT 20/M03 A2992 RMK A01 T02031033  RH  020%=      5-min Rain = 0
KBR1 162101Z 21004KT 20/M03 A2992 RMK A01 T02031033  RH  020%=      5-min Rain = 0
KBR1 162102Z 21005KT 20/M03 A2992 RMK A01 T02031034  RH  020%=      5-min Rain = 0
KBR1 162103Z 21007KT 20/M03 A2992 RMK A01 T02021034  RH  020%=      5-min Rain = 0
KBR1 162104Z 20006KT 20/M03 A2992 RMK A01 T02031033  RH  020%=      5-min Rain = 0
KBR1 162105Z 21004KT 20/M03 A2992 RMK A01 T02021034  RH  020%=      5-min Rain = 0
KBR1 162106Z 20006KT 20/M03 A2992 RMK A01 T02021033  RH  020%=      5-min Rain = 0
KBR1 162107Z 19006KT 20/M03 A2992 RMK A01 T02011033  RH  020%=      5-min Rain = 0
KBR1 162108Z 18006KT 20/M03 A2991 RMK A01 T02011034  RH  020%=      5-min Rain = 0
KBR1 162109Z 19006KT 20/M03 A2991 RMK A01 T02011034  RH  020%=      5-min Rain = 0
KBR1 162110Z 19006KT 20/M03 A2991 RMK A01 T02011034  RH  020%=      5-min Rain = 0
KBR1 162111Z 20005KT 20/M04 A2991 RMK A01 T02011035  RH  020%=      5-min Rain = 0
KBR1 162112Z 20005KT 20/M04 A2991 RMK A01 T02011035  RH  020%=      5-min Rain = 0
KBR1 162113Z 20005KT 20/M03 A2991 RMK A01 T02011034  RH  020%=      5-min Rain = 0
KBR1 162114Z 21004KT 20/M04 A2991 RMK A01 T02021035  RH  020%=      5-min Rain = 0
KBR1 162115Z 21004KT 20/M03 A2991 RMK A01 T02021034  RH  020%=      5-min Rain = 0
KBR1 162116Z 21005KT 20/M03 A2991 RMK A01 T02031034  RH  020%=      5-min Rain = 0
KBR1 162117Z 19006KT 20/M03 A2991 RMK A01 T02031034  RH  020%=      5-min Rain = 0
KBR1 162118Z 19006KT 20/M04 A2991 RMK A01 T02031035  RH  020%=      5-min Rain = 0
KBR1 162119Z 20006KT 20/M04 A2991 RMK A01 T02031035  RH  020%=      5-min Rain = 0
KBR1 162120Z 20006KT 20/M04 A2991 RMK A01 T02031035  RH  020%=      5-min Rain = 0
KBR1 162121Z 19006KT 20/M04 A2991 RMK A01 T02031035  RH  020%=      5-min Rain = 0
KBR1 162122Z 18006KT 20/M04 A2991 RMK A01 T02031035  RH  020%=      5-min Rain = 0
KBR1 162123Z 19005KT 20/M04 A2991 RMK A01 T02031036  RH  020%=      5-min Rain = 0
KBR1 162124Z 19007KT 20/M04 A2991 RMK A01 T02021036  RH  020%=      5-min Rain = 0
KBR1 162125Z 19006KT 20/M04 A2991 RMK A01 T02021035  RH  020%=      5-min Rain = 0
KBR1 162126Z 18005KT 20/M04 A2991 RMK A01 T02031036  RH  020%=      5-min Rain = 0
KBR1 162127Z 18006KT 20/M04 A2991 RMK A01 T02031035  RH  020%=      5-min Rain = 0
KBR1 162128Z 18005KT 20/M03 A2991 RMK A01 T02031034  RH  020%=      5-min Rain = 0
KBR1 162129Z 18005KT 20/M04 A2991 RMK A01 T02031035  RH  020%=      5-min Rain = 0
KBR1 162130Z 19005KT 20/M03 A2991 RMK A01 T02041034  RH  020%=      5-min Rain = 0
KBR1 162131Z 19006KT 20/M04 A2991 RMK A01 T02041035  RH  020%=      5-min Rain = 0
KBR1 162132Z 19005KT 20/M04 A2991 RMK A01 T02041035  RH  020%=      5-min Rain = 0
KBR1 162133Z 19004KT 20/M04 A2991 RMK A01 T02041035  RH  020%=      5-min Rain = 0
KBR1 162134Z 21005KT 21/M03 A2991 RMK A01 T02051034  RH  020%=      5-min Rain = 0
KBR1 162135Z 22005KT 21/M04 A2991 RMK A01 T02051035  RH  020%=      5-min Rain = 0
KBR1 162136Z 19005KT 21/M03 A2991 RMK A01 T02071033  RH  020%=      5-min Rain = 0
KBR1 162137Z 21005KT 21/M03 A2991 RMK A01 T02071033  RH  020%=      5-min Rain = 0
KBR1 162138Z 20004KT 21/M03 A2991 RMK A01 T02081034  RH  019%=      5-min Rain = 0
KBR1 162139Z 20003KT 21/M03 A2991 RMK A01 T02081034  RH  019%=      5-min Rain = 0
KBR1 162140Z 18005KT 21/M03 A2991 RMK A01 T02091032  RH  020%=      5-min Rain = 0
KBR1 162141Z 18005KT 21/M03 A2991 RMK A01 T02091034  RH  019%=      5-min Rain = 0
KBR1 162142Z 20006KT 21/M03 A2991 RMK A01 T02081034  RH  019%=      5-min Rain = 0
KBR1 162143Z 20005KT 21/M04 A2991 RMK A01 T02071036  RH  019%=      5-min Rain = 0
KBR1 162144Z 20005KT 21/M03 A2991 RMK A01 T02071034  RH  019%=      5-min Rain = 0
KBR1 162145Z 20005KT 21/M03 A2991 RMK A01 T02061034  RH  020%=      5-min Rain = 0
KBR1 162146Z 20007KT 21/M03 A2991 RMK A01 T02071034  RH  019%=      5-min Rain = 0
KBR1 162147Z 19005KT 21/M04 A2991 RMK A01 T02061036  RH  019%=      5-min Rain = 0
KBR1 162148Z 20006KT 21/M04 A2991 RMK A01 T02061035  RH  019%=      5-min Rain = 0
KBR1 162149Z 20006KT 21/M04 A2991 RMK A01 T02051035  RH  020%=      5-min Rain = 0
KBR1 162150Z 20006KT 21/M04 A2991 RMK A01 T02051035  RH  020%=      5-min Rain = 0
KBR1 162151Z 19005KT 21/M04 A2991 RMK A01 T02051035  RH  020%=      5-min Rain = 0
KBR1 162152Z 20005KT 21/M03 A2991 RMK A01 T02051033  RH  020%=      5-min Rain = 0
KBR1 162153Z 19005KT 21/M03 A2991 RMK A01 T02051033  RH  020%=      5-min Rain = 0
KBR1 162154Z 19006KT 21/M03 A2991 RMK A01 T02051034  RH  020%=      5-min Rain = 0
KBR1 162155Z 19006KT 20/M03 A2991 RMK A01 T02041034  RH  020%=      5-min Rain = 0
KBR1 162156Z 19007KT 20/M03 A2991 RMK A01 T02041033  RH  020%=      5-min Rain = 0
KBR1 162157Z 19006KT 20/M03 A2991 RMK A01 T02031034  RH  020%=      5-min Rain = 0
KBR1 162158Z 19007KT 20/M03 A2991 RMK A01 T02031034  RH  020%=      5-min Rain = 0
KBR1 162159Z 19007KT 20/M03 A2991 RMK A01 T02031032  RH  020%=      5-min Rain = 0
KBR1 162200Z 18007KT 20/M03 A2991 RMK A01 T02031033  RH  020%=      5-min Rain = 0
KBR1 162201Z 18006KT 20/M03 A2991 RMK A01 T02031032  RH  020%=      5-min Rain = 0
KBR1 162202Z 18006KT 20/M03 A2991 RMK A01 T02031031  RH  020%=      5-min Rain = 0
KBR1 162203Z 19006KT 20/M03 A2991 RMK A01 T02031032  RH  020%=      5-min Rain = 0
KBR1 162204Z 19006KT 20/M03 A2991 RMK A01 T02031031  RH  020%=      5-min Rain = 0
KBR1 162205Z 18006KT 20/M03 A2991 RMK A01 T02041029  RH  021%=      5-min Rain = 0
KBR1 162206Z 18007KT 21/M03 A2991 RMK A01 T02051028  RH  021%=      5-min Rain = 0
KBR1 162207Z 18006KT 20/M03 A2991 RMK A01 T02041029  RH  021%=      5-min Rain = 0
KBR1 162208Z 18007KT 20/M03 A2991 RMK A01 T02041029  RH  021%=      5-min Rain = 0
KBR1 162209Z 18005KT 21/M03 A2991 RMK A01 T02051029  RH  021%=      5-min Rain = 0
KBR1 162210Z 19006KT 20/M03 A2991 RMK A01 T02041029  RH  021%=      5-min Rain = 0
KBR1 162211Z 19007KT 21/M03 A2991 RMK A01 T02051029  RH  020%=      5-min Rain = 0
KBR1 162212Z 19006KT 21/M03 A2991 RMK A01 T02051029  RH  020%=      5-min Rain = 0
KBR1 162213Z 18007KT 21/M03 A2991 RMK A01 T02051030  RH  020%=      5-min Rain = 0
KBR1 162214Z 18008KT 21/M03 A2991 RMK A01 T02051030  RH  020%=      5-min Rain = 0
KBR1 162215Z 18007KT 20/M03 A2991 RMK A01 T02041032  RH  020%=      5-min Rain = 0
KBR1 162216Z 18007KT 20/M03 A2991 RMK A01 T02041030  RH  020%=      5-min Rain = 0
KBR1 162217Z 18007KT 20/M03 A2991 RMK A01 T02041030  RH  020%=      5-min Rain = 0
KBR1 162218Z 17006KT 21/M03 A2991 RMK A01 T02051030  RH  020%=      5-min Rain = 0
KBR1 162219Z 17007KT 21/M03 A2991 RMK A01 T02061030  RH  020%=      5-min Rain = 0
KBR1 162220Z 16008KT 21/M03 A2991 RMK A01 T02071031  RH  020%=      5-min Rain = 0
KBR1 162221Z 17007KT 21/M03 A2991 RMK A01 T02061032  RH  020%=      5-min Rain = 0
KBR1 162222Z 17006KT 21/M03 A2991 RMK A01 T02051032  RH  020%=      5-min Rain = 0
KBR1 162223Z 17006KT 21/M03 A2991 RMK A01 T02051032  RH  020%=      5-min Rain = 0
KBR1 162224Z 17007KT 21/M03 A2991 RMK A01 T02051032  RH  020%=      5-min Rain = 0
KBR1 162225Z 17007KT 21/M03 A2991 RMK A01 T02051033  RH  020%=      5-min Rain = 0
KBR1 162226Z 17007KT 21/M03 A2992 RMK A01 T02051032  RH  020%=      5-min Rain = 0
KBR1 162227Z 17006KT 21/M03 A2992 RMK A01 T02051033  RH  020%=      5-min Rain = 0
KBR1 162228Z 18007KT 21/M03 A2992 RMK A01 T02051033  RH  020%=      5-min Rain = 0
KBR1 162229Z 19005KT 21/M03 A2992 RMK A01 T02051034  RH  020%=      5-min Rain = 0
KBR1 162230Z 18007KT 21/M03 A2992 RMK A01 T02051033  RH  020%=      5-min Rain = 0
KBR1 162231Z 18006KT 21/M03 A2992 RMK A01 T02051034  RH  020%=      5-min Rain = 0
KBR1 162232Z 17006KT 21/M03 A2992 RMK A01 T02051034  RH  020%=      5-min Rain = 0
KBR1 162233Z 18006KT 20/M03 A2992 RMK A01 T02041034  RH  020%=      5-min Rain = 0
KBR1 162234Z 17006KT 20/M04 A2992 RMK A01 T02041036  RH  020%=      5-min Rain = 0
KBR1 162235Z 17007KT 21/M04 A2992 RMK A01 T02051035  RH  020%=      5-min Rain = 0
KBR1 162236Z 17007KT 21/M04 A2992 RMK A01 T02051036  RH  019%=      5-min Rain = 0
KBR1 162237Z 16006KT 21/M04 A2992 RMK A01 T02051037  RH  019%=      5-min Rain = 0
KBR1 162238Z 16007KT 21/M04 A2992 RMK A01 T02051037  RH  019%=      5-min Rain = 0
KBR1 162239Z 16007KT 21/M04 A2992 RMK A01 T02051037  RH  019%=      5-min Rain = 0
KBR1 162240Z 16006KT 21/M04 A2992 RMK A01 T02051038  RH  019%=      5-min Rain = 0
KBR1 162241Z 17006KT 21/M04 A2992 RMK A01 T02051037  RH  019%=      5-min Rain = 0
KBR1 162242Z 16006KT 21/M04 A2992 RMK A01 T02051038  RH  019%=      5-min Rain = 0
KBR1 162243Z 16006KT 21/M04 A2992 RMK A01 T02051038  RH  019%=      5-min Rain = 0
KBR1 162244Z 17006KT 21/M04 A2992 RMK A01 T02051037  RH  019%=      5-min Rain = 0
KBR1 162245Z 17005KT 20/M04 A2992 RMK A01 T02041037  RH  019%=      5-min Rain = 0
KBR1 162246Z 16004KT 20/M04 A2992 RMK A01 T02041037  RH  020%=      5-min Rain = 0
KBR1 162247Z 16004KT 20/M04 A2992 RMK A01 T02041036  RH  020%=      5-min Rain = 0
KBR1 162248Z 16005KT 20/M04 A2992 RMK A01 T02041036  RH  020%=      5-min Rain = 0
KBR1 162249Z 16005KT 21/M04 A2992 RMK A01 T02051036  RH  019%=      5-min Rain = 0
KBR1 162250Z 17005KT 21/M04 A2992 RMK A01 T02051037  RH  019%=      5-min Rain = 0
KBR1 162251Z 17006KT 20/M04 A2992 RMK A01 T02041038  RH  019%=      5-min Rain = 0
KBR1 162252Z 17005KT 20/M04 A2992 RMK A01 T02031037  RH  020%=      5-min Rain = 0
KBR1 162253Z 16005KT 20/M04 A2992 RMK A01 T02031036  RH  020%=      5-min Rain = 0
KBR1 162254Z 16005KT 20/M04 A2992 RMK A01 T02031036  RH  020%=      5-min Rain = 0
KBR1 162255Z 17005KT 20/M04 A2992 RMK A01 T02031037  RH  019%=      5-min Rain = 0
KBR1 162256Z 17004KT 20/M04 A2992 RMK A01 T02031039  RH  019%=      5-min Rain = 0
KBR1 162257Z 17004KT 20/M04 A2992 RMK A01 T02031038  RH  019%=      5-min Rain = 0
KBR1 162258Z 17005KT 20/M04 A2992 RMK A01 T02021039  RH  019%=      5-min Rain = 0
KBR1 162259Z 17004KT 20/M04 A2992 RMK A01 T02021038  RH  020%=      5-min Rain = 0
KBR1 162300Z 17004KT 20/M04 A2992 RMK A01 T02011037  RH  020%=      5-min Rain = 0
KBR1 162301Z 17004KT 20/M04 A2992 RMK A01 T01991038  RH  020%=      5-min Rain = 0
KBR1 162302Z 16004KT 20/M04 A2992 RMK A01 T01981038  RH  020%=      5-min Rain = 0
KBR1 162303Z 16004KT 20/M04 A2992 RMK A01 T01971037  RH  020%=      5-min Rain = 0
KBR1 162304Z 16004KT 20/M04 A2992 RMK A01 T01951038  RH  020%=      5-min Rain = 0
KBR1 162305Z 16004KT 19/M04 A2992 RMK A01 T01941038  RH  021%=      5-min Rain = 0
KBR1 162306Z 15005KT 19/M04 A2992 RMK A01 T01911039  RH  021%=      5-min Rain = 0
KBR1 162307Z 15004KT 19/M04 A2992 RMK A01 T01891039  RH  021%=      5-min Rain = 0
KBR1 162308Z 15004KT 19/M04 A2992 RMK A01 T01871039  RH  021%=      5-min Rain = 0
KBR1 162309Z 15004KT 19/M04 A2992 RMK A01 T01851038  RH  022%=      5-min Rain = 0
KBR1 162310Z 15003KT 19/M04 A2992 RMK A01 T01851038  RH  022%=      5-min Rain = 0
KBR1 162311Z 15003KT 19/M04 A2992 RMK A01 T01851038  RH  022%=      5-min Rain = 0
KBR1 162312Z 16003KT 19/M04 A2992 RMK A01 T01851037  RH  022%=      5-min Rain = 0
KBR1 162313Z 15003KT 19/M04 A2992 RMK A01 T01861037  RH  022%=      5-min Rain = 0
KBR1 162314Z 15004KT 19/M04 A2992 RMK A01 T01861037  RH  022%=      5-min Rain = 0
KBR1 162315Z 15004KT 19/M04 A2992 RMK A01 T01851037  RH  022%=      5-min Rain = 0
KBR1 162316Z 16004KT 19/M04 A2992 RMK A01 T01851037  RH  022%=      5-min Rain = 0
KBR1 162317Z 16004KT 19/M04 A2992 RMK A01 T01851037  RH  022%=      5-min Rain = 0
KBR1 162318Z 15004KT 19/M04 A2992 RMK A01 T01851037  RH  022%=      5-min Rain = 0
KBR1 162319Z 14004KT 19/M04 A2992 RMK A01 T01851037  RH  022%=      5-min Rain = 0
KBR1 162320Z 14004KT 19/M04 A2992 RMK A01 T01851037  RH  022%=      5-min Rain = 0
KBR1 162321Z 14003KT 18/M04 A2992 RMK A01 T01841037  RH  022%=      5-min Rain = 0
KBR1 162322Z 14003KT 18/M04 A2992 RMK A01 T01831037  RH  022%=      5-min Rain = 0
KBR1 162323Z 14003KT 18/M04 A2992 RMK A01 T01811038  RH  022%=      5-min Rain = 0
KBR1 162324Z 14003KT 18/M04 A2992 RMK A01 T01811037  RH  022%=      5-min Rain = 0
KBR1 162325Z 14002KT 18/M04 A2992 RMK A01 T01821037  RH  022%=      5-min Rain = 0
KBR1 162326Z 14003KT 18/M04 A2992 RMK A01 T01831036  RH  022%=      5-min Rain = 0
KBR1 162327Z 14003KT 18/M04 A2992 RMK A01 T01831037  RH  022%=      5-min Rain = 0
KBR1 162328Z 14002KT 18/M04 A2992 RMK A01 T01831036  RH  022%=      5-min Rain = 0
KBR1 162329Z 14002KT 18/M04 A2992 RMK A01 T01831037  RH  022%=      5-min Rain = 0
KBR1 162330Z 14001KT 18/M04 A2992 RMK A01 T01831037  RH  022%=      5-min Rain = 0
KBR1 162331Z 15001KT 18/M04 A2992 RMK A01 T01831037  RH  022%=      5-min Rain = 0
KBR1 162332Z 16001KT 18/M04 A2992 RMK A01 T01821037  RH  022%=      5-min Rain = 0
KBR1 162333Z 16001KT 18/M04 A2992 RMK A01 T01821038  RH  022%=      5-min Rain = 0
KBR1 162334Z 16001KT 18/M04 A2992 RMK A01 T01801039  RH  022%=      5-min Rain = 0
KBR1 162335Z 16001KT 18/M04 A2993 RMK A01 T01771039  RH  023%=      5-min Rain = 0
KBR1 162336Z 16001KT 18/M04 A2993 RMK A01 T01751040  RH  023%=      5-min Rain = 0
KBR1 162337Z 16001KT 17/M04 A2993 RMK A01 T01731039  RH  023%=      5-min Rain = 0
KBR1 162338Z 16001KT 17/M04 A2993 RMK A01 T01741039  RH  023%=      5-min Rain = 0
KBR1 162339Z 16001KT 17/M04 A2993 RMK A01 T01741038  RH  023%=      5-min Rain = 0
KBR1 162340Z 16001KT 17/M04 A2993 RMK A01 T01741038  RH  023%=      5-min Rain = 0
KBR1 162341Z 17002KT 18/M04 A2993 RMK A01 T01751037  RH  023%=      5-min Rain = 0
KBR1 162342Z 18002KT 17/M04 A2993 RMK A01 T01731039  RH  023%=      5-min Rain = 0
KBR1 162343Z 18002KT 17/M04 A2993 RMK A01 T01721039  RH  023%=      5-min Rain = 0
KBR1 162344Z 18002KT 17/M04 A2993 RMK A01 T01711039  RH  024%=      5-min Rain = 0
KBR1 162345Z 18002KT 17/M04 A2993 RMK A01 T01711038  RH  024%=      5-min Rain = 0
KBR1 162346Z 18002KT 17/M04 A2993 RMK A01 T01701038  RH  024%=      5-min Rain = 0
KBR1 162347Z 17002KT 17/M04 A2993 RMK A01 T01701038  RH  024%=      5-min Rain = 0
KBR1 162348Z 17002KT 17/M04 A2993 RMK A01 T01701038  RH  024%=      5-min Rain = 0
KBR1 162349Z 17002KT 17/M04 A2993 RMK A01 T01691039  RH  024%=      5-min Rain = 0
KBR1 162350Z 17002KT 17/M04 A2993 RMK A01 T01651040  RH  024%=      5-min Rain = 0
KBR1 162351Z 16002KT 16/M04 A2993 RMK A01 T01631040  RH  024%=      5-min Rain = 0
KBR1 162352Z 16002KT 16/M04 A2993 RMK A01 T01621040  RH  025%=      5-min Rain = 0
KBR1 162353Z 16002KT 16/M04 A2993 RMK A01 T01601041  RH  025%=      5-min Rain = 0
KBR1 162354Z 16002KT 16/M04 A2993 RMK A01 T01561042  RH  025%=      5-min Rain = 0
KBR1 162355Z 16002KT 16/M04 A2993 RMK A01 T01551041  RH  026%=      5-min Rain = 0
KBR1 162356Z 15002KT 15/M04 A2993 RMK A01 T01541041  RH  026%=      5-min Rain = 0
KBR1 162357Z 15002KT 16/M04 A2993 RMK A01 T01551040  RH  026%=      5-min Rain = 0
KBR1 162358Z 15002KT 16/M04 A2993 RMK A01 T01571039  RH  026%=      5-min Rain = 0
KBR1 162359Z 14001KT 16/M04 A2993 RMK A01 T01581039  RH  026%=      5-min Rain = 0
KBR1 170000Z 14001KT 16/M04 A2993 RMK A01 T01571040  RH  025%=      5-min Rain = 0
KBR1 170001Z 13001KT 16/M04 A2993 RMK A01 T01551041  RH  026%=      5-min Rain = 0
KBR1 170002Z 12001KT 15/M04 A2993 RMK A01 T01501044  RH  026%=      5-min Rain = 0
KBR1 170003Z 12001KT 15/M04 A2993 RMK A01 T01461044  RH  027%=      5-min Rain = 0
KBR1 170004Z 12001KT 14/M04 A2993 RMK A01 T01441043  RH  027%=      5-min Rain = 0
KBR1 170005Z 12001KT 14/M04 A2993 RMK A01 T01441042  RH  027%=      5-min Rain = 0
KBR1 170006Z 12001KT 15/M04 A2993 RMK A01 T01461041  RH  027%=      5-min Rain = 0
KBR1 170007Z 12001KT 15/M04 A2993 RMK A01 T01471041  RH  027%=      5-min Rain = 0
KBR1 170008Z 12001KT 15/M04 A2993 RMK A01 T01501040  RH  027%=      5-min Rain = 0
KBR1 170009Z 12001KT 15/M04 A2993 RMK A01 T01521039  RH  026%=      5-min Rain = 0
KBR1 170010Z 13001KT 16/M04 A2993 RMK A01 T01551039  RH  026%=      5-min Rain = 0
KBR1 170011Z 13002KT 16/M04 A2993 RMK A01 T01551040  RH  026%=      5-min Rain = 0
KBR1 170012Z 13002KT 16/M04 A2993 RMK A01 T01551040  RH  026%=      5-min Rain = 0
KBR1 170013Z 14002KT 16/M04 A2993 RMK A01 T01581038  RH  026%=      5-min Rain = 0
KBR1 170014Z 14002KT 16/M04 A2993 RMK A01 T01621036  RH  025%=      5-min Rain = 0
KBR1 170015Z 14002KT 17/M04 A2993 RMK A01 T01671036  RH  025%=      5-min Rain = 0
KBR1 170016Z 14002KT 17/M04 A2993 RMK A01 T01691036  RH  024%=      5-min Rain = 0
KBR1 170017Z 14002KT 17/M04 A2993 RMK A01 T01711037  RH  024%=      5-min Rain = 0
KBR1 170018Z 14002KT 17/M04 A2993 RMK A01 T01731037  RH  024%=      5-min Rain = 0
KBR1 170019Z 14001KT 17/M04 A2993 RMK A01 T01711040  RH  023%=      5-min Rain = 0
KBR1 170020Z 14001KT 16/M04 A2993 RMK A01 T01641043  RH  024%=      5-min Rain = 0
KBR1 170021Z 14001KT 16/M04 A2993 RMK A01 T01591042  RH  025%=      5-min Rain = 0
KBR1 170022Z 14001KT 16/M04 A2993 RMK A01 T01551042  RH  025%=      5-min Rain = 0
KBR1 170023Z 14001KT 15/M05 A2993 RMK A01 T01481045  RH  026%=      5-min Rain = 0
KBR1 170024Z 14001KT 14/M04 A2994 RMK A01 T01441042  RH  027%=      5-min Rain = 0
KBR1 170025Z 14001KT 15/M04 A2994 RMK A01 T01461041  RH  027%=      5-min Rain = 0
KBR1 170026Z 14001KT 15/M04 A2994 RMK A01 T01461041  RH  027%=      5-min Rain = 0
KBR1 170027Z 14001KT 15/M04 A2994 RMK A01 T01461041  RH  027%=      5-min Rain = 0
KBR1 170028Z 14001KT 15/M04 A2994 RMK A01 T01461041  RH  027%=      5-min Rain = 0
KBR1 170029Z 14001KT 15/M04 A2994 RMK A01 T01471040  RH  027%=      5-min Rain = 0
KBR1 170030Z 14001KT 15/M04 A2994 RMK A01 T01501038  RH  027%=      5-min Rain = 0
KBR1 170031Z 14001KT 15/M04 A2994 RMK A01 T01541038  RH  026%=      5-min Rain = 0
KBR1 170032Z 14001KT 16/M04 A2994 RMK A01 T01581037  RH  026%=      5-min Rain = 0
KBR1 170033Z 14001KT 16/M04 A2994 RMK A01 T01611038  RH  025%=      5-min Rain = 0
KBR1 170034Z 14001KT 16/M04 A2994 RMK A01 T01631038  RH  025%=      5-min Rain = 0
KBR1 170035Z 15001KT 16/M04 A2994 RMK A01 T01631038  RH  025%=      5-min Rain = 0
KBR1 170036Z 16001KT 16/M04 A2994 RMK A01 T01631038  RH  025%=      5-min Rain = 0
KBR1 170037Z 16002KT 16/M04 A2993 RMK A01 T01621039  RH  025%=      5-min Rain = 0
KBR1 170038Z 17002KT 16/M04 A2993 RMK A01 T01611040  RH  025%=      5-min Rain = 0
KBR1 170039Z 17002KT 16/M04 A2993 RMK A01 T01591041  RH  025%=      5-min Rain = 0
KBR1 170040Z 17002KT 16/M04 A2993 RMK A01 T01571041  RH  025%=      5-min Rain = 0
KBR1 170041Z 17001KT 16/M04 A2994 RMK A01 T01551041  RH  026%=      5-min Rain = 0
KBR1 170042Z 17001KT 15/M04 A2994 RMK A01 T01531041  RH  026%=      5-min Rain = 0
KBR1 170043Z 17001KT 15/M04 A2994 RMK A01 T01501042  RH  026%=      5-min Rain = 0
KBR1 170044Z 17001KT 15/M04 A2994 RMK A01 T01461043  RH  027%=      5-min Rain = 0
KBR1 170045Z 00000KT 14/M04 A2994 RMK A01 T01411044  RH  027%=      5-min Rain = 0
KBR1 170046Z 00000KT 14/M04 A2994 RMK A01 T01381044  RH  028%=      5-min Rain = 0
KBR1 170047Z 00000KT 14/M04 A2994 RMK A01 T01371043  RH  028%=      5-min Rain = 0
KBR1 170048Z 00000KT 14/M04 A2994 RMK A01 T01371042  RH  029%=      5-min Rain = 0
KBR1 170049Z 00000KT 14/M04 A2994 RMK A01 T01401041  RH  028%=      5-min Rain = 0
KBR1 170050Z 00000KT 14/M04 A2994 RMK A01 T01421041  RH  028%=      5-min Rain = 0
KBR1 170051Z 00000KT 14/M04 A2994 RMK A01 T01441040  RH  028%=      5-min Rain = 0
KBR1 170052Z 00000KT 15/M04 A2994 RMK A01 T01461040  RH  027%=      5-min Rain = 0
KBR1 170053Z 17000KT 15/M04 A2994 RMK A01 T01471040  RH  027%=      5-min Rain = 0
KBR1 170054Z 34001KT 15/M04 A2994 RMK A01 T01471040  RH  027%=      5-min Rain = 0
KBR1 170055Z 35002KT 15/M04 A2994 RMK A01 T01451041  RH  027%=      5-min Rain = 0
KBR1 170056Z 00002KT 14/M04 A2994 RMK A01 T01411043  RH  028%=      5-min Rain = 0
KBR1 170057Z 00002KT 13/M05 A2994 RMK A01 T01331045  RH  029%=      5-min Rain = 0
KBR1 170058Z 36002KT 13/M05 A2994 RMK A01 T01271045  RH  030%=      5-min Rain = 0
KBR1 170059Z 35002KT 12/M05 A2994 RMK A01 T01221045  RH  031%=      5-min Rain = 0
KBR1 170100Z 33003KT 12/M05 A2994 RMK A01 T01201045  RH  031%=      5-min Rain = 0
KBR1 170101Z 33003KT 12/M04 A2994 RMK A01 T01171044  RH  032%=      5-min Rain = 0
KBR1 170102Z 34003KT 11/M04 A2994 RMK A01 T01141043  RH  033%=      5-min Rain = 0
KBR1 170103Z 35003KT 11/M04 A2994 RMK A01 T01121043  RH  034%=      5-min Rain = 0
KBR1 170104Z 35003KT 11/M04 A2994 RMK A01 T01101044  RH  034%=      5-min Rain = 0
KBR1 170105Z 35003KT 11/M04 A2994 RMK A01 T01111043  RH  034%=      5-min Rain = 0
KBR1 170106Z 34003KT 11/M04 A2994 RMK A01 T01131042  RH  033%=      5-min Rain = 0
KBR1 170107Z 34003KT 12/M04 A2994 RMK A01 T01161042  RH  033%=      5-min Rain = 0
KBR1 170108Z 34004KT 12/M04 A2994 RMK A01 T01171042  RH  033%=      5-min Rain = 0
KBR1 170109Z 35004KT 12/M04 A2994 RMK A01 T01171042  RH  033%=      5-min Rain = 0
KBR1 170110Z 35004KT 12/M04 A2994 RMK A01 T01171042  RH  033%=      5-min Rain = 0
KBR1 170111Z 35004KT 12/M04 A2994 RMK A01 T01171041  RH  033%=      5-min Rain = 0
KBR1 170112Z 35004KT 12/M04 A2994 RMK A01 T01171042  RH  033%=      5-min Rain = 0
KBR1 170113Z 35003KT 12/M04 A2994 RMK A01 T01181041  RH  033%=      5-min Rain = 0
KBR1 170114Z 34003KT 12/M04 A2994 RMK A01 T01201041  RH  032%=      5-min Rain = 0
KBR1 170115Z 34003KT 12/M04 A2994 RMK A01 T01231041  RH  032%=      5-min Rain = 0
KBR1 170116Z 34003KT 13/M04 A2994 RMK A01 T01251040  RH  031%=      5-min Rain = 0
KBR1 170117Z 34003KT 13/M04 A2994 RMK A01 T01271040  RH  031%=      5-min Rain = 0
KBR1 170118Z 35003KT 13/M04 A2994 RMK A01 T01291040  RH  031%=      5-min Rain = 0
KBR1 170119Z 35003KT 13/M04 A2994 RMK A01 T01291040  RH  031%=      5-min Rain = 0
KBR1 170120Z 35003KT 13/M04 A2994 RMK A01 T01301040  RH  030%=      5-min Rain = 0
KBR1 170121Z 35003KT 13/M04 A2994 RMK A01 T01301040  RH  030%=      5-min Rain = 0
KBR1 170122Z 35003KT 13/M04 A2994 RMK A01 T01301040  RH  030%=      5-min Rain = 0
KBR1 170123Z 35004KT 13/M04 A2994 RMK A01 T01291041  RH  030%=      5-min Rain = 0
KBR1 170124Z 35004KT 13/M04 A2994 RMK A01 T01281041  RH  031%=      5-min Rain = 0
KBR1 170125Z 35004KT 13/M04 A2994 RMK A01 T01261041  RH  031%=      5-min Rain = 0
KBR1 170126Z 35004KT 13/M04 A2994 RMK A01 T01261041  RH  031%=      5-min Rain = 0
KBR1 170127Z 35004KT 13/M04 A2994 RMK A01 T01271041  RH  031%=      5-min Rain = 0
KBR1 170128Z 00004KT 13/M04 A2994 RMK A01 T01281041  RH  031%=      5-min Rain = 0
KBR1 170129Z 00004KT 13/M04 A2994 RMK A01 T01281042  RH  030%=      5-min Rain = 0
KBR1 170130Z 00004KT 13/M04 A2994 RMK A01 T01281041  RH  030%=      5-min Rain = 0
KBR1 170131Z 01004KT 13/M04 A2994 RMK A01 T01291041  RH  030%=      5-min Rain = 0
KBR1 170132Z 00005KT 13/M04 A2994 RMK A01 T01291041  RH  030%=      5-min Rain = 0
KBR1 170133Z 00005KT 13/M04 A2994 RMK A01 T01301041  RH  030%=      5-min Rain = 0
KBR1 170134Z 00005KT 13/M04 A2994 RMK A01 T01311041  RH  030%=      5-min Rain = 0
KBR1 170135Z 00004KT 13/M04 A2994 RMK A01 T01311041  RH  030%=      5-min Rain = 0
KBR1 170136Z 36005KT 13/M04 A2994 RMK A01 T01311041  RH  030%=      5-min Rain = 0
KBR1 170137Z 36005KT 13/M04 A2994 RMK A01 T01311041  RH  030%=      5-min Rain = 0
KBR1 170138Z 00006KT 13/M04 A2994 RMK A01 T01301041  RH  030%=      5-min Rain = 0
KBR1 170139Z 00006KT 13/M04 A2995 RMK A01 T01301041  RH  030%=      5-min Rain = 0
KBR1 170140Z 01006KT 13/M04 A2995 RMK A01 T01291041  RH  030%=      5-min Rain = 0
KBR1 170141Z 01007KT 13/M04 A2995 RMK A01 T01281041  RH  030%=      5-min Rain = 0
KBR1 170142Z 01007KT 13/M04 A2995 RMK A01 T01271042  RH  031%=      5-min Rain = 0
KBR1 170143Z 01007KT 13/M04 A2995 RMK A01 T01261042  RH  031%=      5-min Rain = 0
KBR1 170144Z 01007KT 13/M04 A2995 RMK A01 T01261042  RH  031%=      5-min Rain = 0
KBR1 170145Z 00007KT 13/M04 A2995 RMK A01 T01261042  RH  031%=      5-min Rain = 0
KBR1 170146Z 01007KT 13/M04 A2995 RMK A01 T01251042  RH  031%=      5-min Rain = 0
KBR1 170147Z 01007KT 12/M04 A2995 RMK A01 T01231042  RH  031%=      5-min Rain = 0
KBR1 170148Z 01007KT 12/M04 A2995 RMK A01 T01201043  RH  032%=      5-min Rain = 0
KBR1 170149Z 01007KT 12/M04 A2995 RMK A01 T01171043  RH  032%=      5-min Rain = 0
KBR1 170150Z 01007KT 11/M04 A2995 RMK A01 T01141043  RH  033%=      5-min Rain = 0
KBR1 170151Z 01007KT 11/M04 A2995 RMK A01 T01111043  RH  034%=      5-min Rain = 0
KBR1 170152Z 01007KT 11/M04 A2995 RMK A01 T01091043  RH  034%=      5-min Rain = 0
KBR1 170153Z 01007KT 11/M04 A2995 RMK A01 T01081043  RH  034%=      5-min Rain = 0
KBR1 170154Z 01006KT 11/M04 A2995 RMK A01 T01071043  RH  035%=      5-min Rain = 0
KBR1 170155Z 01006KT 11/M04 A2995 RMK A01 T01061043  RH  035%=      5-min Rain = 0
KBR1 170156Z 01005KT 11/M04 A2995 RMK A01 T01061044  RH  035%=      5-min Rain = 0
KBR1 170157Z 01005KT 11/M04 A2995 RMK A01 T01061044  RH  035%=      5-min Rain = 0
KBR1 170158Z 02005KT 11/M04 A2995 RMK A01 T01061043  RH  035%=      5-min Rain = 0
KBR1 170159Z 01006KT 11/M04 A2995 RMK A01 T01071043  RH  035%=      5-min Rain = 0
KBR1 170200Z 01007KT 11/M04 A2995 RMK A01 T01091043  RH  034%=      5-min Rain = 0
KBR1 170201Z 01007KT 11/M04 A2995 RMK A01 T01121042  RH  034%=      5-min Rain = 0
KBR1 170202Z 01007KT 11/M04 A2995 RMK A01 T01141043  RH  033%=      5-min Rain = 0
KBR1 170203Z 01006KT 12/M04 A2995 RMK A01 T01151043  RH  033%=      5-min Rain = 0
KBR1 170204Z 02005KT 12/M04 A2995 RMK A01 T01161043  RH  033%=      5-min Rain = 0
KBR1 170205Z 02004KT 12/M04 A2995 RMK A01 T01151043  RH  033%=      5-min Rain = 0
KBR1 170206Z 02005KT 11/M04 A2996 RMK A01 T01131044  RH  033%=      5-min Rain = 0
KBR1 170207Z 01008KT 11/M05 A2996 RMK A01 T01101045  RH  033%=      5-min Rain = 0
KBR1 170208Z 01011KT 11/M04 A2996 RMK A01 T01081044  RH  034%=      5-min Rain = 0
KBR1 170209Z 01012KT 11/M04 A2996 RMK A01 T01081043  RH  034%=      5-min Rain = 0
KBR1 170210Z 01012KT 11/M04 A2996 RMK A01 T01101042  RH  034%=      5-min Rain = 0
KBR1 170211Z 01012KT 11/M04 A2996 RMK A01 T01131042  RH  033%=      5-min Rain = 0
KBR1 170212Z 01012KT 11/M04 A2996 RMK A01 T01141042  RH  033%=      5-min Rain = 0
KBR1 170213Z 01011KT 11/M04 A2996 RMK A01 T01141042  RH  033%=      5-min Rain = 0
KBR1 170214Z 01010KT 11/M04 A2996 RMK A01 T01141043  RH  033%=      5-min Rain = 0
KBR1 170215Z 01010KT 11/M04 A2996 RMK A01 T01121043  RH  034%=      5-min Rain = 0
KBR1 170216Z 01010KT 11/M04 A2996 RMK A01 T01101043  RH  034%=      5-min Rain = 0
KBR1 170217Z 01009KT 11/M04 A2996 RMK A01 T01091043  RH  034%=      5-min Rain = 0
KBR1 170218Z 01010KT 11/M04 A2997 RMK A01 T01071043  RH  034%=      5-min Rain = 0
KBR1 170219Z 00010KT 11/M04 A2997 RMK A01 T01061043  RH  035%=      5-min Rain = 0
KBR1 170220Z 00010KT 11/M04 A2997 RMK A01 T01051043  RH  035%=      5-min Rain = 0
KBR1 170221Z 01009KT 10/M04 A2997 RMK A01 T01041044  RH  035%=      5-min Rain = 0
KBR1 170222Z 01009KT 10/M04 A2997 RMK A01 T01031044  RH  035%=      5-min Rain = 0
KBR1 170223Z 01009KT 10/M04 A2997 RMK A01 T01031044  RH  035%=      5-min Rain = 0
KBR1 170224Z 01012KT 10/M04 A2997 RMK A01 T01011044  RH  036%=      5-min Rain = 0
KBR1 170225Z 02013KT 10/M04 A2997 RMK A01 T01031044  RH  035%=      5-min Rain = 0
KBR1 170226Z 01014KT 11/M04 A2997 RMK A01 T01061043  RH  035%=      5-min Rain = 0
KBR1 170227Z 01013KT 11/M04 A2997 RMK A01 T01101043  RH  034%=      5-min Rain = 0
KBR1 170228Z 01013KT 11/M04 A2997 RMK A01 T01131043  RH  033%=      5-min Rain = 0
KBR1 170229Z 01012KT 11/M04 A2997 RMK A01 T01131043  RH  033%=      5-min Rain = 0
KBR1 170230Z 01012KT 11/M04 A2997 RMK A01 T01121044  RH  033%=      5-min Rain = 0
KBR1 170231Z 01012KT 11/M04 A2997 RMK A01 T01101044  RH  034%=      5-min Rain = 0
KBR1 170232Z 01012KT 11/M04 A2998 RMK A01 T01091044  RH  034%=      5-min Rain = 0
KBR1 170233Z 01012KT 11/M04 A2997 RMK A01 T01091044  RH  034%=      5-min Rain = 0
KBR1 170234Z 01011KT 11/M04 A2997 RMK A01 T01081044  RH  034%=      5-min Rain = 0
KBR1 170235Z 01012KT 11/M04 A2997 RMK A01 T01091044  RH  034%=      5-min Rain = 0
KBR1 170236Z 01011KT 11/M04 A2997 RMK A01 T01091044  RH  034%=      5-min Rain = 0
KBR1 170237Z 01010KT 11/M04 A2997 RMK A01 T01081044  RH  034%=      5-min Rain = 0
KBR1 170238Z 01011KT 11/M04 A2997 RMK A01 T01071044  RH  034%=      5-min Rain = 0
KBR1 170239Z 01011KT 11/M04 A2997 RMK A01 T01061044  RH  035%=      5-min Rain = 0
KBR1 170240Z 01013KT 11/M04 A2998 RMK A01 T01061044  RH  035%=      5-min Rain = 0
KBR1 170241Z 01013KT 11/M04 A2998 RMK A01 T01081043  RH  034%=      5-min Rain = 0
KBR1 170242Z 01013KT 11/M04 A2998 RMK A01 T01111043  RH  034%=      5-min Rain = 0
KBR1 170243Z 01014KT 11/M04 A2997 RMK A01 T01131042  RH  034%=      5-min Rain = 0
KBR1 170244Z 01013KT 11/M04 A2997 RMK A01 T01141042  RH  033%=      5-min Rain = 0
KBR1 170245Z 01013KT 12/M04 A2997 RMK A01 T01151042  RH  033%=      5-min Rain = 0
KBR1 170246Z 01012KT 12/M04 A2997 RMK A01 T01161041  RH  033%=      5-min Rain = 0
KBR1 170247Z 01012KT 12/M04 A2997 RMK A01 T01181041  RH  033%=      5-min Rain = 0
KBR1 170248Z 02011KT 12/M04 A2997 RMK A01 T01181041  RH  033%=      5-min Rain = 0
KBR1 170249Z 02011KT 12/M04 A2997 RMK A01 T01181041  RH  033%=      5-min Rain = 0
KBR1 170250Z 01012KT 12/M04 A2997 RMK A01 T01191040  RH  033%=      5-min Rain = 0
KBR1 170251Z 01012KT 12/M04 A2997 RMK A01 T01191040  RH  033%=      5-min Rain = 0
KBR1 170252Z 01012KT 12/M04 A2997 RMK A01 T01191041  RH  033%=      5-min Rain = 0
KBR1 170253Z 01012KT 12/M04 A2997 RMK A01 T01181041  RH  033%=      5-min Rain = 0
KBR1 170254Z 01013KT 12/M04 A2997 RMK A01 T01161041  RH  033%=      5-min Rain = 0
KBR1 170255Z 01013KT 12/M04 A2997 RMK A01 T01161041  RH  033%=      5-min Rain = 0
KBR1 170256Z 01012KT 12/M04 A2997 RMK A01 T01151041  RH  033%=      5-min Rain = 0
KBR1 170257Z 01012KT 12/M04 A2997 RMK A01 T01151040  RH  033%=      5-min Rain = 0
KBR1 170258Z 01011KT 12/M04 A2997 RMK A01 T01151040  RH  034%=      5-min Rain = 0
KBR1 170259Z 02010KT 11/M04 A2997 RMK A01 T01141040  RH  034%=      5-min Rain = 0
KBR1 170300Z 02010KT 11/M04 A2997 RMK A01 T01141039  RH  034%=      5-min Rain = 0
KBR1 170301Z 03009KT 11/M04 A2997 RMK A01 T01141039  RH  034%=      5-min Rain = 0
KBR1 170302Z 03009KT 12/M04 A2997 RMK A01 T01151038  RH  034%=      5-min Rain = 0
KBR1 170303Z 03009KT 12/M04 A2997 RMK A01 T01151037  RH  034%=      5-min Rain = 0
KBR1 170304Z 03010KT 12/M04 A2997 RMK A01 T01161037  RH  034%=      5-min Rain = 0
KBR1 170305Z 03010KT 12/M04 A2997 RMK A01 T01171037  RH  034%=      5-min Rain = 0
KBR1 170306Z 03009KT 12/M04 A2997 RMK A01 T01191036  RH  034%=      5-min Rain = 0
KBR1 170307Z 03009KT 12/M04 A2997 RMK A01 T01201036  RH  034%=      5-min Rain = 0
KBR1 170308Z 03010KT 12/M04 A2997 RMK A01 T01221035  RH  033%=      5-min Rain = 0
KBR1 170309Z 03009KT 12/M04 A2997 RMK A01 T01231035  RH  033%=      5-min Rain = 0
KBR1 170310Z 03009KT 12/M04 A2997 RMK A01 T01241035  RH  033%=      5-min Rain = 0
KBR1 170311Z 03009KT 12/M04 A2997 RMK A01 T01241035  RH  033%=      5-min Rain = 0
KBR1 170312Z 03009KT 12/M04 A2997 RMK A01 T01241035  RH  033%=      5-min Rain = 0
KBR1 170313Z 03009KT 12/M04 A2997 RMK A01 T01241035  RH  033%=      5-min Rain = 0
KBR1 170314Z 03009KT 12/M04 A2997 RMK A01 T01241035  RH  033%=      5-min Rain = 0
KBR1 170315Z 03009KT 12/M04 A2997 RMK A01 T01241035  RH  033%=      5-min Rain = 0
KBR1 170316Z 03009KT 13/M04 A2997 RMK A01 T01251035  RH  033%=      5-min Rain = 0
KBR1 170317Z 03010KT 13/M04 A2997 RMK A01 T01251035  RH  033%=      5-min Rain = 0
KBR1 170318Z 02010KT 13/M04 A2998 RMK A01 T01251035  RH  033%=      5-min Rain = 0
KBR1 170319Z 02010KT 12/M04 A2998 RMK A01 T01241035  RH  033%=      5-min Rain = 0
KBR1 170320Z 02010KT 12/M04 A2998 RMK A01 T01241035  RH  033%=      5-min Rain = 0
KBR1 170321Z 02011KT 12/M04 A2998 RMK A01 T01231035  RH  033%=      5-min Rain = 0
KBR1 170322Z 02011KT 12/M04 A2998 RMK A01 T01211036  RH  033%=      5-min Rain = 0
KBR1 170323Z 02011KT 12/M04 A2998 RMK A01 T01211035  RH  033%=      5-min Rain = 0
KBR1 170324Z 02011KT 12/M04 A2998 RMK A01 T01211035  RH  033%=      5-min Rain = 0
KBR1 170325Z 02012KT 12/M04 A2998 RMK A01 T01211035  RH  034%=      5-min Rain = 0
KBR1 170326Z 02012KT 12/M04 A2998 RMK A01 T01201035  RH  034%=      5-min Rain = 0
KBR1 170327Z 02011KT 12/M04 A2998 RMK A01 T01201035  RH  034%=      5-min Rain = 0
KBR1 170328Z 02011KT 12/M03 A2998 RMK A01 T01201034  RH  034%=      5-min Rain = 0
KBR1 170329Z 02012KT 12/M04 A2998 RMK A01 T01191035  RH  034%=      5-min Rain = 0
KBR1 170330Z 03011KT 12/M03 A2998 RMK A01 T01191034  RH  034%=      5-min Rain = 0
KBR1 170331Z 03011KT 12/M03 A2999 RMK A01 T01191034  RH  034%=      5-min Rain = 0
KBR1 170332Z 03012KT 12/M03 A2999 RMK A01 T01201034  RH  034%=      5-min Rain = 0
KBR1 170333Z 02012KT 12/M03 A2999 RMK A01 T01211034  RH  034%=      5-min Rain = 0
KBR1 170334Z 02012KT 12/M03 A2999 RMK A01 T01221033  RH  034%=      5-min Rain = 0
KBR1 170335Z 03012KT 12/M03 A2999 RMK A01 T01221033  RH  034%=      5-min Rain = 0
KBR1 170336Z 03012KT 12/M03 A2999 RMK A01 T01221033  RH  034%=      5-min Rain = 0
KBR1 170337Z 03012KT 12/M03 A2999 RMK A01 T01241032  RH  034%=      5-min Rain = 0
KBR1 170338Z 02012KT 13/M03 A2999 RMK A01 T01261031  RH  033%=      5-min Rain = 0
KBR1 170339Z 02013KT 13/M03 A2999 RMK A01 T01281031  RH  033%=      5-min Rain = 0
KBR1 170340Z 02014KT 13/M03 A2999 RMK A01 T01291031  RH  033%=      5-min Rain = 0
KBR1 170341Z 02014KT 13/M03 A2999 RMK A01 T01271031  RH  033%=      5-min Rain = 0
KBR1 170342Z 02014KT 13/M03 A2999 RMK A01 T01251031  RH  033%=      5-min Rain = 0
KBR1 170343Z 02014KT 12/M03 A2999 RMK A01 T01241030  RH  034%=      5-min Rain = 0
KBR1 170344Z 02014KT 12/M03 A2999 RMK A01 T01231030  RH  034%=      5-min Rain = 0
KBR1 170345Z 02015KT 12/M03 A2999 RMK A01 T01221029  RH  035%=      5-min Rain = 0
KBR1 170346Z 02014KT 12/M03 A2999 RMK A01 T01221028  RH  035%=      5-min Rain = 0
KBR1 170347Z 02015KT 12/M03 A2999 RMK A01 T01221027  RH  035%=      5-min Rain = 0
KBR1 170348Z 02015KT 12/M03 A2999 RMK A01 T01231026  RH  035%=      5-min Rain = 0
KBR1 170349Z 02015KT 12/M03 A2999 RMK A01 T01231025  RH  035%=      5-min Rain = 0
KBR1 170350Z 03016KT 12/M03 A2999 RMK A01 T01241025  RH  035%=      5-min Rain = 0
KBR1 170351Z 03017KT 13/M03 A2999 RMK A01 T01271025  RH  035%=      5-min Rain = 0
KBR1 170352Z 03016KT 13/M03 A30 RMK A01 T01291026  RH  034%=      5-min Rain = 0
KBR1 170353Z 03018KT 13/M03 A30 RMK A01 T01321027  RH  033%=      5-min Rain = 0
KBR1 170354Z 03017KT 13/M03 A30 RMK A01 T01341028  RH  033%=      5-min Rain = 0
KBR1 170355Z 03017KT 13/M03 A30 RMK A01 T01341028  RH  032%=      5-min Rain = 0
KBR1 170356Z 03016KT 14/M03 A30 RMK A01 T01351029  RH  032%=      5-min Rain = 0
KBR1 170357Z 03017KT 13/M03 A30 RMK A01 T01341029  RH  032%=      5-min Rain = 0
KBR1 170358Z 03017KT 13/M03 A30 RMK A01 T01341029  RH  032%=      5-min Rain = 0
KBR1 170359Z 03016KT 13/M03 A30 RMK A01 T01341029  RH  032%=      5-min Rain = 0
KBR1 170400Z 03015KT 13/M03 A30 RMK A01 T01341030  RH  032%=      5-min Rain = 0
KBR1 170401Z 03017KT 13/M03 A30 RMK A01 T01341030  RH  032%=      5-min Rain = 0
KBR1 170402Z 03018KT 13/M03 A30 RMK A01 T01341030  RH  032%=      5-min Rain = 0
KBR1 170403Z 03017KT 13/M03 A3001 RMK A01 T01341031  RH  032%=      5-min Rain = 0
KBR1 170404Z 03017KT 13/M03 A3001 RMK A01 T01341031  RH  032%=      5-min Rain = 0
KBR1 170405Z 03016KT 13/M03 A3001 RMK A01 T01341031  RH  032%=      5-min Rain = 0
KBR1 170406Z 03016KT 13/M03 A3001 RMK A01 T01341031  RH  032%=      5-min Rain = 0
KBR1 170407Z 03016KT 13/M03 A3001 RMK A01 T01341031  RH  032%=      5-min Rain = 0
KBR1 170408Z 03017KT 13/M03 A3001 RMK A01 T01341032  RH  032%=      5-min Rain = 0
KBR1 170409Z 03018KT 13/M03 A3001 RMK A01 T01341032  RH  031%=      5-min Rain = 0
KBR1 170410Z 03016KT 13/M03 A3001 RMK A01 T01341032  RH  031%=      5-min Rain = 0
KBR1 170411Z 03017KT 13/M03 A3001 RMK A01 T01341032  RH  031%=      5-min Rain = 0
KBR1 170412Z 03016G21KT 13/M03 A3001 RMK A01 T01341033  RH  031%=      5-min Rain = 0
KBR1 170413Z 03016KT 13/M03 A3001 RMK A01 T01341033  RH  031%=      5-min Rain = 0
KBR1 170414Z 03016KT 13/M03 A3001 RMK A01 T01341034  RH  031%=      5-min Rain = 0
KBR1 170415Z 03017KT 13/M03 A3001 RMK A01 T01341034  RH  031%=      5-min Rain = 0
KBR1 170416Z 03016KT 13/M04 A3001 RMK A01 T01341035  RH  031%=      5-min Rain = 0
KBR1 170417Z 03017KT 14/M04 A3001 RMK A01 T01351035  RH  031%=      5-min Rain = 0
KBR1 170418Z 03017KT 14/M04 A3001 RMK A01 T01351035  RH  031%=      5-min Rain = 0
KBR1 170419Z 03018KT 14/M04 A3001 RMK A01 T01351036  RH  030%=      5-min Rain = 0
KBR1 170420Z 03016KT 14/M04 A3001 RMK A01 T01361036  RH  030%=      5-min Rain = 0
KBR1 170421Z 03017KT 14/M04 A3001 RMK A01 T01361036  RH  030%=      5-min Rain = 0
KBR1 170422Z 03015KT 14/M04 A3001 RMK A01 T01361037  RH  030%=      5-min Rain = 0
KBR1 170423Z 03015KT 14/M04 A3001 RMK A01 T01361037  RH  030%=      5-min Rain = 0
KBR1 170424Z 03017KT 14/M04 A3001 RMK A01 T01351038  RH  030%=      5-min Rain = 0
KBR1 170425Z 03018KT 14/M04 A3001 RMK A01 T01361038  RH  030%=      5-min Rain = 0
KBR1 170426Z 03017KT 14/M04 A3001 RMK A01 T01371039  RH  029%=      5-min Rain = 0
KBR1 170427Z 03016KT 14/M04 A3001 RMK A01 T01371039  RH  029%=      5-min Rain = 0
KBR1 170428Z 03016KT 14/M04 A3002 RMK A01 T01371039  RH  029%=      5-min Rain = 0
KBR1 170429Z 03015KT 14/M04 A3002 RMK A01 T01371039  RH  029%=      5-min Rain = 0
KBR1 170430Z 03016KT 14/M04 A3002 RMK A01 T01361040  RH  029%=      5-min Rain = 0
KBR1 170431Z 04016KT 14/M04 A3002 RMK A01 T01361040  RH  029%=      5-min Rain = 0
KBR1 170432Z 03015KT 14/M04 A3002 RMK A01 T01361040  RH  029%=      5-min Rain = 0
KBR1 170433Z 03015KT 14/M04 A3002 RMK A01 T01361040  RH  029%=      5-min Rain = 0
KBR1 170434Z 03015KT 13/M04 A3002 RMK A01 T01341041  RH  029%=      5-min Rain = 0
KBR1 170435Z 03014KT 13/M04 A3002 RMK A01 T01341040  RH  030%=      5-min Rain = 0
KBR1 170436Z 03015KT 13/M04 A3002 RMK A01 T01341041  RH  030%=      5-min Rain = 0
KBR1 170437Z 03015KT 13/M04 A3002 RMK A01 T01341040  RH  030%=      5-min Rain = 0
KBR1 170438Z 03014KT 13/M04 A3002 RMK A01 T01341040  RH  030%=      5-min Rain = 0
KBR1 170439Z 03016KT 13/M04 A3002 RMK A01 T01331041  RH  030%=      5-min Rain = 0
KBR1 170440Z 03015KT 13/M04 A3002 RMK A01 T01341041  RH  029%=      5-min Rain = 0
KBR1 170441Z 03015KT 13/M04 A3002 RMK A01 T01341041  RH  029%=      5-min Rain = 0
KBR1 170442Z 03014KT 13/M04 A3002 RMK A01 T01331041  RH  030%=      5-min Rain = 0
KBR1 170443Z 03015KT 13/M04 A3002 RMK A01 T01331041  RH  030%=      5-min Rain = 0
KBR1 170444Z 03015KT 13/M04 A3002 RMK A01 T01331041  RH  030%=      5-min Rain = 0
KBR1 170445Z 03014KT 13/M04 A3002 RMK A01 T01321041  RH  030%=      5-min Rain = 0
KBR1 170446Z 04014KT 13/M04 A3002 RMK A01 T01321041  RH  030%=      5-min Rain = 0
KBR1 170447Z 03014KT 13/M04 A3002 RMK A01 T01311040  RH  030%=      5-min Rain = 0
KBR1 170448Z 04014KT 13/M04 A3002 RMK A01 T01311041  RH  030%=      5-min Rain = 0
KBR1 170449Z 04014KT 13/M04 A3002 RMK A01 T01301041  RH  030%=      5-min Rain = 0
KBR1 170450Z 03014KT 13/M04 A3003 RMK A01 T01311041  RH  030%=      5-min Rain = 0
KBR1 170451Z 03013KT 13/M04 A3003 RMK A01 T01311040  RH  030%=      5-min Rain = 0
KBR1 170452Z 03015KT 13/M04 A3003 RMK A01 T01301041  RH  030%=      5-min Rain = 0
KBR1 170453Z 03014KT 13/M04 A3003 RMK A01 T01301040  RH  030%=      5-min Rain = 0
KBR1 170454Z 03014KT 13/M04 A3003 RMK A01 T01291040  RH  030%=      5-min Rain = 0
KBR1 170455Z 03014KT 13/M04 A3003 RMK A01 T01291040  RH  031%=      5-min Rain = 0
KBR1 170456Z 03015KT 13/M04 A3003 RMK A01 T01291040  RH  031%=      5-min Rain = 0
KBR1 170457Z 03015KT 13/M04 A3003 RMK A01 T01281040  RH  031%=      5-min Rain = 0
KBR1 170458Z 03014KT 13/M04 A3003 RMK A01 T01281040  RH  031%=      5-min Rain = 0
KBR1 170459Z 03013KT 13/M04 A3003 RMK A01 T01271040  RH  031%=      5-min Rain = 0
KBR1 170500Z 03013KT 13/M04 A3003 RMK A01 T01261040  RH  031%=      5-min Rain = 0
KBR1 170501Z 03013KT 13/M04 A3004 RMK A01 T01251040  RH  031%=      5-min Rain = 0
KBR1 170502Z 03014KT 12/M04 A3004 RMK A01 T01241040  RH  032%=      5-min Rain = 0
KBR1 170503Z 03014KT 12/M04 A3004 RMK A01 T01241039  RH  032%=      5-min Rain = 0
KBR1 170504Z 03014KT 12/M04 A3004 RMK A01 T01241040  RH  032%=      5-min Rain = 0
KBR1 170505Z 03014KT 12/M04 A3004 RMK A01 T01241039  RH  032%=      5-min Rain = 0
KBR1 170506Z 03013KT 12/M04 A3004 RMK A01 T01231039  RH  032%=      5-min Rain = 0
KBR1 170507Z 03013KT 12/M04 A3004 RMK A01 T01231039  RH  032%=      5-min Rain = 0
KBR1 170508Z 03014KT 12/M04 A3004 RMK A01 T01221039  RH  032%=      5-min Rain = 0
KBR1 170509Z 03013KT 12/M04 A3004 RMK A01 T01221039  RH  032%=      5-min Rain = 0
KBR1 170510Z 03013KT 12/M04 A3004 RMK A01 T01221039  RH  032%=      5-min Rain = 0
KBR1 170511Z 03013KT 12/M04 A3004 RMK A01 T01221039  RH  032%=      5-min Rain = 0
KBR1 170512Z 03013KT 12/M04 A3004 RMK A01 T01221039  RH  032%=      5-min Rain = 0
KBR1 170513Z 03013KT 12/M04 A3004 RMK A01 T01211038  RH  033%=      5-min Rain = 0
KBR1 170514Z 03014KT 12/M04 A3004 RMK A01 T01211039  RH  033%=      5-min Rain = 0
KBR1 170515Z 03013KT 12/M04 A3005 RMK A01 T01211039  RH  033%=      5-min Rain = 0
KBR1 170516Z 03014KT 12/M04 A3005 RMK A01 T01211038  RH  033%=      5-min Rain = 0
KBR1 170517Z 03013KT 12/M04 A3005 RMK A01 T01211038  RH  033%=      5-min Rain = 0
KBR1 170518Z 02013KT 12/M04 A3005 RMK A01 T01211038  RH  033%=      5-min Rain = 0
KBR1 170519Z 02014KT 12/M04 A3005 RMK A01 T01201038  RH  033%=      5-min Rain = 0
KBR1 170520Z 02013KT 12/M04 A3005 RMK A01 T01201038  RH  033%=      5-min Rain = 0
KBR1 170521Z 02012KT 12/M04 A3005 RMK A01 T01201038  RH  033%=      5-min Rain = 0
KBR1 170522Z 02012KT 12/M04 A3005 RMK A01 T01191039  RH  033%=      5-min Rain = 0
KBR1 170523Z 02013KT 12/M04 A3005 RMK A01 T01181038  RH  033%=      5-min Rain = 0
KBR1 170524Z 02012KT 12/M04 A3005 RMK A01 T01171039  RH  033%=      5-min Rain = 0
KBR1 170525Z 03012KT 12/M04 A3005 RMK A01 T01171038  RH  034%=      5-min Rain = 0
KBR1 170526Z 02013KT 12/M04 A3005 RMK A01 T01171038  RH  034%=      5-min Rain = 0
KBR1 170527Z 02013KT 12/M04 A3005 RMK A01 T01171038  RH  034%=      5-min Rain = 0
KBR1 170528Z 02014KT 12/M04 A3005 RMK A01 T01171038  RH  034%=      5-min Rain = 0
KBR1 170529Z 02013KT 12/M04 A3005 RMK A01 T01171038  RH  034%=      5-min Rain = 0
KBR1 170530Z 03014KT 12/M04 A3005 RMK A01 T01171038  RH  034%=      5-min Rain = 0
KBR1 170531Z 02014KT 12/M04 A3005 RMK A01 T01171038  RH  034%=      5-min Rain = 0
KBR1 170532Z 02014KT 12/M04 A3005 RMK A01 T01171038  RH  034%=      5-min Rain = 0
KBR1 170533Z 02014KT 12/M04 A3005 RMK A01 T01171038  RH  034%=      5-min Rain = 0
KBR1 170534Z 02013KT 12/M04 A3005 RMK A01 T01161038  RH  034%=      5-min Rain = 0
KBR1 170535Z 02015KT 12/M04 A3005 RMK A01 T01161037  RH  034%=      5-min Rain = 0
KBR1 170536Z 02015KT 12/M04 A3005 RMK A01 T01161038  RH  034%=      5-min Rain = 0
KBR1 170537Z 02014KT 12/M04 A3005 RMK A01 T01161037  RH  034%=      5-min Rain = 0
KBR1 170538Z 02016KT 12/M04 A3005 RMK A01 T01161037  RH  034%=      5-min Rain = 0
KBR1 170539Z 02016KT 12/M04 A3005 RMK A01 T01161037  RH  034%=      5-min Rain = 0
KBR1 170540Z 02017KT 12/M04 A3005 RMK A01 T01161037  RH  034%=      5-min Rain = 0
KBR1 170541Z 02017KT 12/M04 A3005 RMK A01 T01161037  RH  034%=      5-min Rain = 0
KBR1 170542Z 02017KT 12/M04 A3006 RMK A01 T01161037  RH  034%=      5-min Rain = 0
KBR1 170543Z 02016KT 12/M04 A3006 RMK A01 T01161037  RH  034%=      5-min Rain = 0
KBR1 170544Z 02015KT 12/M04 A3006 RMK A01 T01161038  RH  034%=      5-min Rain = 0
KBR1 170545Z 02017KT 11/M04 A3006 RMK A01 T01141038  RH  034%=      5-min Rain = 0
KBR1 170546Z 02016KT 11/M04 A3006 RMK A01 T01141038  RH  034%=      5-min Rain = 0
KBR1 170547Z 02016KT 12/M04 A3006 RMK A01 T01151038  RH  034%=      5-min Rain = 0
KBR1 170548Z 02016KT 11/M04 A3006 RMK A01 T01141038  RH  034%=      5-min Rain = 0
KBR1 170549Z 02016KT 11/M04 A3006 RMK A01 T01141038  RH  034%=      5-min Rain = 0
KBR1 170550Z 02016KT 11/M04 A3006 RMK A01 T01141038  RH  034%=      5-min Rain = 0
KBR1 170551Z 02016KT 11/M04 A3006 RMK A01 T01131038  RH  034%=      5-min Rain = 0
KBR1 170552Z 02015KT 11/M04 A3006 RMK A01 T01131038  RH  035%=      5-min Rain = 0
KBR1 170553Z 02017KT 11/M04 A3006 RMK A01 T01131038  RH  035%=      5-min Rain = 0
KBR1 170554Z 02017KT 11/M04 A3006 RMK A01 T01131038  RH  035%=      5-min Rain = 0
KBR1 170555Z 02017KT 11/M04 A3007 RMK A01 T01131038  RH  034%=      5-min Rain = 0
KBR1 170556Z 02016KT 11/M04 A3007 RMK A01 T01131038  RH  034%=      5-min Rain = 0
KBR1 170557Z 02018KT 11/M04 A3007 RMK A01 T01131038  RH  035%=      5-min Rain = 0
KBR1 170558Z 02017KT 11/M04 A3007 RMK A01 T01131038  RH  035%=      5-min Rain = 0
KBR1 170559Z 02016KT 11/M04 A3006 RMK A01 T01131038  RH  035%=      5-min Rain = 0

Page generated in 0.0715 seconds.